Time,TemperatureF,DewpointF,PressureIn,WindDirection,WindDirectionDegrees,WindSpeedMPH,WindSpeedGustMPH,Humidity,HourlyPrecipIn,Conditions,Clouds,dailyrainin,SoftwareType,DateUTC
2013-05-13 00:00:00,56.1,52.4,30.05,SSW,202,0.0,0.0,88,0.00,,,0.00,WUHU21636XXSP,2013-05-13 07:00:00,
2013-05-13 00:01:00,56.1,52.1,30.05,SSW,202,0.0,0.0,87,0.00,,,0.00,WUHU21636XXSP,2013-05-13 07:01:00,
2013-05-13 00:02:00,56.1,52.1,30.05,SSW,202,0.0,0.0,87,0.00,,,0.00,WUHU21636XXSP,2013-05-13 07:02:00,
2013-05-13 00:05:00,55.9,52.2,30.05,SSE,157,0.0,0.0,88,0.00,,,0.00,WUHU21636XXSP,2013-05-13 07:05:00,
2013-05-13 00:06:00,55.9,52.2,30.05,SSE,157,0.0,0.0,88,0.00,,,0.00,WUHU21636XXSP,2013-05-13 07:06:00,
2013-05-13 00:07:00,56.1,52.4,30.05,SSE,157,0.0,0.0,88,0.00,,,0.00,WUHU21636XXSP,2013-05-13 07:07:00,
2013-05-13 00:11:00,55.9,52.2,30.05,SSE,157,0.0,0.0,88,0.00,,,0.00,WUHU21636XXSP,2013-05-13 07:11:00,
2013-05-13 00:12:00,55.9,52.2,30.05,SSE,157,0.0,0.0,88,0.00,,,0.00,WUHU21636XXSP,2013-05-13 07:12:00,
2013-05-13 00:16:00,55.9,52.2,30.05,SSE,157,0.0,0.0,88,0.00,,,0.00,WUHU21636XXSP,2013-05-13 07:16:00,
2013-05-13 00:17:00,55.9,52.2,30.05,SSE,157,0.0,0.0,88,0.00,,,0.00,WUHU21636XXSP,2013-05-13 07:17:00,
2013-05-13 00:18:00,55.8,52.1,30.05,SSE,157,0.0,0.0,88,0.00,,,0.00,WUHU21636XXSP,2013-05-13 07:18:00,
2013-05-13 00:21:00,55.8,52.1,30.05,SSE,157,0.0,0.0,88,0.00,,,0.00,WUHU21636XXSP,2013-05-13 07:21:00,
2013-05-13 00:22:00,55.8,52.1,30.06,SSE,157,0.0,0.0,88,0.00,,,0.00,WUHU21636XXSP,2013-05-13 07:22:00,
2013-05-13 00:23:00,55.8,52.1,30.06,SSE,157,0.0,0.0,88,0.00,,,0.00,WUHU21636XXSP,2013-05-13 07:23:00,
2013-05-13 00:26:00,55.8,52.1,30.06,SSE,157,0.0,0.0,88,0.00,,,0.00,WUHU21636XXSP,2013-05-13 07:26:00,
2013-05-13 00:27:00,55.8,52.1,30.06,SSE,157,0.0,0.0,88,0.00,,,0.00,WUHU21636XXSP,2013-05-13 07:27:00,
2013-05-13 00:28:00,55.8,52.1,30.06,SSE,157,0.0,0.0,88,0.00,,,0.00,WUHU21636XXSP,2013-05-13 07:28:00,
2013-05-13 00:31:00,55.6,51.9,30.06,SSE,157,0.0,0.0,88,0.00,,,0.00,WUHU21636XXSP,2013-05-13 07:31:00,
2013-05-13 00:33:00,55.6,51.9,30.06,SSE,157,0.0,0.0,88,0.00,,,0.00,WUHU21636XXSP,2013-05-13 07:33:00,
2013-05-13 00:36:00,55.6,51.9,30.06,SE,135,1.1,1.1,88,0.00,,,0.00,WUHU21636XXSP,2013-05-13 07:36:00,
2013-05-13 00:37:00,55.6,51.9,30.05,SE,135,1.1,1.1,88,0.00,,,0.00,WUHU21636XXSP,2013-05-13 07:37:00,
2013-05-13 00:38:00,55.6,52.3,30.06,SE,135,1.1,1.1,89,0.00,,,0.00,WUHU21636XXSP,2013-05-13 07:38:00,
2013-05-13 00:42:00,55.6,51.9,30.06,SE,135,0.0,1.1,88,0.00,,,0.00,WUHU21636XXSP,2013-05-13 07:42:00,
2013-05-13 00:43:00,55.6,51.9,30.06,SE,135,0.0,1.1,88,0.00,,,0.00,WUHU21636XXSP,2013-05-13 07:43:00,
2013-05-13 00:47:00,55.6,51.9,30.06,SE,135,0.0,0.0,88,0.00,,,0.00,WUHU21636XXSP,2013-05-13 07:47:00,
2013-05-13 00:48:00,55.6,51.9,30.05,SE,135,0.0,0.0,88,0.00,,,0.00,WUHU21636XXSP,2013-05-13 07:48:00,
2013-05-13 00:52:00,55.4,51.7,30.05,SE,135,0.0,0.0,88,0.00,,,0.00,WUHU21636XXSP,2013-05-13 07:52:00,
2013-05-13 00:53:00,55.4,51.7,30.05,SE,135,0.0,0.0,88,0.00,,,0.00,WUHU21636XXSP,2013-05-13 07:53:00,
2013-05-13 00:54:00,55.4,51.7,30.05,SE,135,0.0,0.0,88,0.00,,,0.00,WUHU21636XXSP,2013-05-13 07:54:00,
2013-05-13 00:57:00,55.2,51.9,30.05,SE,135,0.0,0.0,89,0.00,,,0.00,WUHU21636XXSP,2013-05-13 07:57:00,
2013-05-13 00:58:00,55.2,51.9,30.05,SE,135,0.0,0.0,89,0.00,,,0.00,WUHU21636XXSP,2013-05-13 07:58:00,
2013-05-13 00:59:00,55.2,51.9,30.05,SE,135,0.0,0.0,89,0.00,,,0.00,WUHU21636XXSP,2013-05-13 07:59:00,
2013-05-13 01:02:00,55.2,51.9,30.05,SE,135,0.0,0.0,89,0.00,,,0.00,WUHU21636XXSP,2013-05-13 08:02:00,
2013-05-13 01:03:00,55.2,51.9,30.05,SSE,157,0.0,0.0,89,0.00,,,0.00,WUHU21636XXSP,2013-05-13 08:03:00,
2013-05-13 01:04:00,55.2,51.9,30.05,SSE,157,0.0,0.0,89,0.00,,,0.00,WUHU21636XXSP,2013-05-13 08:04:00,
2013-05-13 01:07:00,55.0,51.7,30.05,SSE,157,0.0,0.0,89,0.00,,,0.00,WUHU21636XXSP,2013-05-13 08:07:00,
2013-05-13 01:08:00,55.0,51.7,30.05,SSE,157,0.0,0.0,89,0.00,,,0.00,WUHU21636XXSP,2013-05-13 08:08:00,
2013-05-13 01:09:00,55.0,51.7,30.06,SSE,157,0.0,0.0,89,0.00,,,0.00,WUHU21636XXSP,2013-05-13 08:09:00,
2013-05-13 01:12:00,55.0,51.7,30.05,SSE,157,0.0,0.0,89,0.00,,,0.00,WUHU21636XXSP,2013-05-13 08:12:00,
2013-05-13 01:13:00,55.0,51.7,30.05,SSE,157,0.0,0.0,89,0.00,,,0.00,WUHU21636XXSP,2013-05-13 08:13:00,
2013-05-13 01:14:00,55.0,51.7,30.05,SSE,157,0.0,0.0,89,0.00,,,0.00,WUHU21636XXSP,2013-05-13 08:14:00,
2013-05-13 01:15:00,55.0,51.7,30.05,SSE,157,0.0,0.0,89,0.00,,,0.00,WUHU21636XXSP,2013-05-13 08:15:00,
2013-05-13 01:17:00,55.0,51.7,30.05,SSE,157,0.0,0.0,89,0.00,,,0.00,WUHU21636XXSP,2013-05-13 08:17:00,
2013-05-13 01:18:00,55.0,51.7,30.05,SSE,157,0.0,0.0,89,0.00,,,0.00,WUHU21636XXSP,2013-05-13 08:18:00,
2013-05-13 01:19:00,55.0,51.7,30.05,SSE,157,0.0,0.0,89,0.00,,,0.00,WUHU21636XXSP,2013-05-13 08:19:00,
2013-05-13 01:20:00,55.0,51.7,30.05,SSE,157,0.0,0.0,89,0.00,,,0.00,WUHU21636XXSP,2013-05-13 08:20:00,
2013-05-13 01:23:00,54.7,51.4,30.05,SSE,157,0.0,0.0,89,0.00,,,0.00,WUHU21636XXSP,2013-05-13 08:23:00,
2013-05-13 01:24:00,54.7,51.4,30.05,SSE,157,0.0,0.0,89,0.00,,,0.00,WUHU21636XXSP,2013-05-13 08:24:00,
2013-05-13 01:25:00,54.7,51.4,30.05,SSE,157,0.0,0.0,89,0.00,,,0.00,WUHU21636XXSP,2013-05-13 08:25:00,
2013-05-13 01:28:00,54.7,51.4,30.05,SSE,157,0.0,0.0,89,0.00,,,0.00,WUHU21636XXSP,2013-05-13 08:28:00,
2013-05-13 01:29:00,54.7,51.4,30.05,SSE,157,0.0,0.0,89,0.00,,,0.00,WUHU21636XXSP,2013-05-13 08:29:00,
2013-05-13 01:30:00,54.7,51.4,30.05,SSE,157,0.0,0.0,89,0.00,,,0.00,WUHU21636XXSP,2013-05-13 08:30:00,
2013-05-13 01:33:00,54.7,51.4,30.05,SSE,157,0.0,0.0,89,0.00,,,0.00,WUHU21636XXSP,2013-05-13 08:33:00,
2013-05-13 01:34:00,54.7,51.4,30.05,SSE,157,0.0,0.0,89,0.00,,,0.00,WUHU21636XXSP,2013-05-13 08:34:00,
2013-05-13 01:35:00,54.7,51.4,30.05,SSE,157,0.0,0.0,89,0.00,,,0.00,WUHU21636XXSP,2013-05-13 08:35:00,
2013-05-13 01:39:00,54.5,51.2,30.05,SSE,157,0.0,0.0,89,0.00,,,0.00,WUHU21636XXSP,2013-05-13 08:39:00,
2013-05-13 01:40:00,54.7,51.4,30.05,SSE,157,0.0,0.0,89,0.00,,,0.00,WUHU21636XXSP,2013-05-13 08:40:00,
2013-05-13 01:44:00,54.5,51.2,30.05,SSE,157,0.0,0.0,89,0.00,,,0.00,WUHU21636XXSP,2013-05-13 08:44:00,
2013-05-13 01:45:00,54.5,51.2,30.04,SSE,157,0.0,0.0,89,0.00,,,0.00,WUHU21636XXSP,2013-05-13 08:45:00,
2013-05-13 01:49:00,54.5,51.2,30.05,SSE,157,0.0,0.0,89,0.00,,,0.00,WUHU21636XXSP,2013-05-13 08:49:00,
2013-05-13 01:50:00,54.5,51.2,30.05,SSE,157,0.0,0.0,89,0.00,,,0.00,WUHU21636XXSP,2013-05-13 08:50:00,
2013-05-13 01:54:00,54.3,51.3,30.04,SSE,157,0.0,0.0,90,0.00,,,0.00,WUHU21636XXSP,2013-05-13 08:54:00,
2013-05-13 01:55:00,54.3,51.3,30.04,SSE,157,0.0,0.0,90,0.00,,,0.00,WUHU21636XXSP,2013-05-13 08:55:00,
2013-05-13 01:56:00,54.3,51.3,30.04,SSE,157,0.0,0.0,90,0.00,,,0.00,WUHU21636XXSP,2013-05-13 08:56:00,
2013-05-13 01:59:00,54.3,51.3,30.04,SSE,157,0.0,0.0,90,0.00,,,0.00,WUHU21636XXSP,2013-05-13 08:59:00,
2013-05-13 02:00:00,54.3,51.3,30.04,SSE,157,0.0,0.0,90,0.00,,,0.00,WUHU21636XXSP,2013-05-13 09:00:00,
2013-05-13 02:01:00,54.3,51.3,30.04,SSE,157,0.0,0.0,90,0.00,,,0.00,WUHU21636XXSP,2013-05-13 09:01:00,
2013-05-13 02:05:00,54.3,51.3,30.04,SSE,157,0.0,0.0,90,0.00,,,0.00,WUHU21636XXSP,2013-05-13 09:05:00,
2013-05-13 02:06:00,54.3,51.3,30.04,SSE,157,0.0,0.0,90,0.00,,,0.00,WUHU21636XXSP,2013-05-13 09:06:00,
2013-05-13 02:07:00,54.3,51.3,30.04,SSE,157,0.0,0.0,90,0.00,,,0.00,WUHU21636XXSP,2013-05-13 09:07:00,
2013-05-13 02:10:00,54.3,51.3,30.04,SSE,157,0.0,0.0,90,0.00,,,0.00,WUHU21636XXSP,2013-05-13 09:10:00,
2013-05-13 02:11:00,54.3,51.3,30.04,SSE,157,0.0,0.0,90,0.00,,,0.00,WUHU21636XXSP,2013-05-13 09:11:00,
2013-05-13 02:12:00,54.3,51.3,30.04,South,180,0.0,0.0,90,0.00,,,0.00,WUHU21636XXSP,2013-05-13 09:12:00,
2013-05-13 02:15:00,54.3,51.3,30.04,South,180,0.0,0.0,90,0.00,,,0.00,WUHU21636XXSP,2013-05-13 09:15:00,
2013-05-13 02:16:00,54.3,51.3,30.05,South,180,0.0,0.0,90,0.00,,,0.00,WUHU21636XXSP,2013-05-13 09:16:00,
2013-05-13 02:17:00,54.3,51.3,30.04,South,180,0.0,0.0,90,0.00,,,0.00,WUHU21636XXSP,2013-05-13 09:17:00,
2013-05-13 02:20:00,54.1,51.1,30.04,South,180,0.0,0.0,90,0.00,,,0.00,WUHU21636XXSP,2013-05-13 09:20:00,
2013-05-13 02:21:00,54.1,51.1,30.04,South,180,0.0,0.0,90,0.00,,,0.00,WUHU21636XXSP,2013-05-13 09:21:00,
2013-05-13 02:22:00,54.1,51.1,30.04,South,180,0.0,0.0,90,0.00,,,0.00,WUHU21636XXSP,2013-05-13 09:22:00,
2013-05-13 02:25:00,54.1,51.1,30.05,South,180,0.0,0.0,90,0.00,,,0.00,WUHU21636XXSP,2013-05-13 09:25:00,
2013-05-13 02:26:00,54.1,51.1,30.05,South,180,0.0,0.0,90,0.00,,,0.00,WUHU21636XXSP,2013-05-13 09:26:00,
2013-05-13 02:27:00,54.1,51.1,30.05,South,180,0.0,0.0,90,0.00,,,0.00,WUHU21636XXSP,2013-05-13 09:27:00,
2013-05-13 02:30:00,54.3,51.3,30.05,South,180,0.0,0.0,90,0.00,,,0.00,WUHU21636XXSP,2013-05-13 09:30:00,
2013-05-13 02:31:00,54.1,51.1,30.05,South,180,0.0,0.0,90,0.00,,,0.00,WUHU21636XXSP,2013-05-13 09:31:00,
2013-05-13 02:33:00,54.1,51.1,30.05,South,180,0.0,0.0,90,0.00,,,0.00,WUHU21636XXSP,2013-05-13 09:33:00,
2013-05-13 02:35:00,54.1,51.1,30.05,South,180,0.0,0.0,90,0.00,,,0.00,WUHU21636XXSP,2013-05-13 09:35:00,
2013-05-13 02:36:00,54.1,51.1,30.05,South,180,0.0,0.0,90,0.00,,,0.00,WUHU21636XXSP,2013-05-13 09:36:00,
2013-05-13 02:37:00,54.1,51.1,30.04,South,180,0.0,0.0,90,0.00,,,0.00,WUHU21636XXSP,2013-05-13 09:37:00,
2013-05-13 02:38:00,54.3,51.3,30.04,SSE,157,0.0,0.0,90,0.00,,,0.00,WUHU21636XXSP,2013-05-13 09:38:00,
2013-05-13 02:41:00,54.1,51.1,30.04,SSE,157,0.0,0.0,90,0.00,,,0.00,WUHU21636XXSP,2013-05-13 09:41:00,
2013-05-13 02:42:00,54.3,51.3,30.04,SSE,157,0.0,0.0,90,0.00,,,0.00,WUHU21636XXSP,2013-05-13 09:42:00,
2013-05-13 02:43:00,54.3,51.3,30.03,SSE,157,0.0,0.0,90,0.00,,,0.00,WUHU21636XXSP,2013-05-13 09:43:00,
2013-05-13 02:46:00,54.3,51.0,30.03,SSE,157,0.0,0.0,89,0.00,,,0.00,WUHU21636XXSP,2013-05-13 09:46:00,
2013-05-13 02:47:00,54.3,51.0,30.04,SSE,157,0.0,0.0,89,0.00,,,0.00,WUHU21636XXSP,2013-05-13 09:47:00,
2013-05-13 02:48:00,54.3,51.0,30.04,SSE,157,0.0,0.0,89,0.00,,,0.00,WUHU21636XXSP,2013-05-13 09:48:00,
2013-05-13 02:51:00,54.3,51.0,30.03,SSE,157,2.0,2.0,89,0.00,,,0.00,WUHU21636XXSP,2013-05-13 09:51:00,
2013-05-13 02:52:00,54.3,51.0,30.03,SSE,157,0.0,2.0,89,0.00,,,0.00,WUHU21636XXSP,2013-05-13 09:52:00,
2013-05-13 02:53:00,54.3,51.0,30.03,South,180,0.0,2.0,89,0.00,,,0.00,WUHU21636XXSP,2013-05-13 09:53:00,
2013-05-13 02:56:00,54.3,51.0,30.03,South,180,0.0,2.0,89,0.00,,,0.00,WUHU21636XXSP,2013-05-13 09:56:00,
2013-05-13 02:57:00,54.3,51.0,30.04,South,180,0.0,2.0,89,0.00,,,0.00,WUHU21636XXSP,2013-05-13 09:57:00,
2013-05-13 02:58:00,54.3,51.0,30.04,South,180,0.0,2.0,89,0.00,,,0.00,WUHU21636XXSP,2013-05-13 09:58:00,
2013-05-13 03:01:00,54.3,51.0,30.03,South,180,0.0,0.0,89,0.00,,,0.00,WUHU21636XXSP,2013-05-13 10:01:00,
2013-05-13 03:02:00,54.3,51.0,30.03,South,180,0.0,0.0,89,0.00,,,0.00,WUHU21636XXSP,2013-05-13 10:02:00,
2013-05-13 03:03:00,54.3,51.0,30.03,South,180,0.0,0.0,89,0.00,,,0.00,WUHU21636XXSP,2013-05-13 10:03:00,
2013-05-13 03:06:00,54.3,51.0,30.03,South,180,0.0,0.0,89,0.00,,,0.00,WUHU21636XXSP,2013-05-13 10:06:00,
2013-05-13 03:07:00,54.3,51.0,30.03,South,180,0.0,0.0,89,0.00,,,0.00,WUHU21636XXSP,2013-05-13 10:07:00,
2013-05-13 03:08:00,54.3,51.0,30.03,South,180,0.0,0.0,89,0.00,,,0.00,WUHU21636XXSP,2013-05-13 10:08:00,
2013-05-13 03:11:00,54.3,51.0,30.03,South,180,0.0,0.0,89,0.00,,,0.00,WUHU21636XXSP,2013-05-13 10:11:00,
2013-05-13 03:12:00,54.3,51.0,30.03,South,180,0.0,0.0,89,0.00,,,0.00,WUHU21636XXSP,2013-05-13 10:12:00,
2013-05-13 03:13:00,54.3,51.0,30.03,South,180,0.0,0.0,89,0.00,,,0.00,WUHU21636XXSP,2013-05-13 10:13:00,
2013-05-13 03:14:00,54.3,51.0,30.03,South,180,0.0,0.0,89,0.00,,,0.00,WUHU21636XXSP,2013-05-13 10:14:00,
2013-05-13 03:16:00,54.3,51.0,30.03,South,180,0.0,0.0,89,0.00,,,0.00,WUHU21636XXSP,2013-05-13 10:16:00,
2013-05-13 03:17:00,54.3,51.0,30.03,South,180,0.0,0.0,89,0.00,,,0.00,WUHU21636XXSP,2013-05-13 10:17:00,
2013-05-13 03:18:00,54.3,51.0,30.03,South,180,0.0,0.0,89,0.00,,,0.00,WUHU21636XXSP,2013-05-13 10:18:00,
2013-05-13 03:19:00,54.3,51.0,30.03,South,180,0.0,0.0,89,0.00,,,0.00,WUHU21636XXSP,2013-05-13 10:19:00,
2013-05-13 03:22:00,54.3,51.0,30.03,SSE,157,0.0,0.0,89,0.00,,,0.00,WUHU21636XXSP,2013-05-13 10:22:00,
2013-05-13 03:23:00,54.3,51.0,30.03,South,180,3.8,3.8,89,0.00,,,0.00,WUHU21636XXSP,2013-05-13 10:23:00,
2013-05-13 03:24:00,54.3,51.0,30.03,South,180,3.8,3.8,89,0.00,,,0.00,WUHU21636XXSP,2013-05-13 10:24:00,
2013-05-13 03:27:00,54.3,51.0,30.04,SSE,157,0.0,3.8,89,0.00,,,0.00,WUHU21636XXSP,2013-05-13 10:27:00,
2013-05-13 03:28:00,54.3,51.0,30.04,SSE,157,0.0,3.8,89,0.00,,,0.00,WUHU21636XXSP,2013-05-13 10:28:00,
2013-05-13 03:29:00,54.5,51.2,30.04,SSE,157,0.0,3.8,89,0.00,,,0.00,WUHU21636XXSP,2013-05-13 10:29:00,
2013-05-13 03:32:00,54.5,51.2,30.03,South,180,0.0,3.8,89,0.00,,,0.00,WUHU21636XXSP,2013-05-13 10:32:00,
2013-05-13 03:33:00,54.5,51.2,30.03,South,180,0.0,3.8,89,0.00,,,0.00,WUHU21636XXSP,2013-05-13 10:33:00,
2013-05-13 03:34:00,54.5,51.2,30.03,South,180,0.0,3.8,89,0.00,,,0.00,WUHU21636XXSP,2013-05-13 10:34:00,
2013-05-13 03:35:00,54.5,51.2,30.03,South,180,0.0,0.0,89,0.00,,,0.00,WUHU21636XXSP,2013-05-13 10:35:00,
2013-05-13 03:37:00,54.5,51.2,30.03,SSW,202,0.0,0.0,89,0.00,,,0.00,WUHU21636XXSP,2013-05-13 10:37:00,
2013-05-13 03:38:00,54.5,51.2,30.03,SE,135,0.0,0.0,89,0.00,,,0.00,WUHU21636XXSP,2013-05-13 10:38:00,
2013-05-13 03:39:00,54.5,51.2,30.03,SE,135,0.0,0.0,89,0.00,,,0.00,WUHU21636XXSP,2013-05-13 10:39:00,
2013-05-13 03:40:00,54.7,51.4,30.04,SSW,202,0.0,0.0,89,0.00,,,0.00,WUHU21636XXSP,2013-05-13 10:40:00,
2013-05-13 03:42:00,54.7,51.4,30.04,South,180,0.0,0.0,89,0.00,,,0.00,WUHU21636XXSP,2013-05-13 10:42:00,
2013-05-13 03:43:00,54.7,51.4,30.03,South,180,0.0,0.0,89,0.00,,,0.00,WUHU21636XXSP,2013-05-13 10:43:00,
2013-05-13 03:44:00,54.7,51.4,30.03,South,180,0.0,0.0,89,0.00,,,0.00,WUHU21636XXSP,2013-05-13 10:44:00,
2013-05-13 03:45:00,54.7,51.4,30.03,SSW,202,0.0,0.0,89,0.00,,,0.00,WUHU21636XXSP,2013-05-13 10:45:00,
2013-05-13 03:47:00,54.7,51.4,30.03,SSE,165,5.5,9.6,89,0.00,,,0.00,WUHU21636XXSP,2013-05-13 10:47:00,
2013-05-13 03:49:00,54.7,51.4,30.03,South,180,1.8,9.6,89,0.00,,,0.00,WUHU21636XXSP,2013-05-13 10:49:00,
2013-05-13 03:50:00,54.7,51.4,30.03,SSE,157,2.4,9.6,89,0.00,,,0.00,WUHU21636XXSP,2013-05-13 10:50:00,
2013-05-13 03:51:00,54.7,51.4,30.03,SSE,157,2.4,9.6,89,0.00,,,0.00,WUHU21636XXSP,2013-05-13 10:51:00,
2013-05-13 03:52:00,54.7,51.4,30.02,SSE,157,2.4,9.6,89,0.00,,,0.00,WUHU21636XXSP,2013-05-13 10:52:00,
2013-05-13 03:54:00,54.7,51.4,30.02,South,180,0.0,9.6,89,0.00,,,0.00,WUHU21636XXSP,2013-05-13 10:54:00,
2013-05-13 03:55:00,54.7,51.4,30.02,South,180,0.0,9.6,89,0.00,,,0.00,WUHU21636XXSP,2013-05-13 10:55:00,
2013-05-13 03:56:00,54.7,51.7,30.02,SSE,157,0.4,9.6,90,0.00,,,0.00,WUHU21636XXSP,2013-05-13 10:56:00,
2013-05-13 03:58:00,54.7,51.7,30.02,SSE,157,0.4,2.4,90,0.00,,,0.00,WUHU21636XXSP,2013-05-13 10:58:00,
2013-05-13 03:59:00,54.7,51.7,30.02,SW,225,3.3,8.7,90,0.00,,,0.00,WUHU21636XXSP,2013-05-13 10:59:00,
2013-05-13 04:00:00,54.7,51.7,30.02,SSW,192,3.9,8.7,90,0.00,,,0.00,WUHU21636XXSP,2013-05-13 11:00:00,
2013-05-13 04:01:00,54.7,51.7,30.02,SSW,209,2.5,8.7,90,0.00,,,0.00,WUHU21636XXSP,2013-05-13 11:01:00,
2013-05-13 04:03:00,54.7,51.7,30.02,SSW,202,2.2,8.7,90,0.00,,,0.00,WUHU21636XXSP,2013-05-13 11:03:00,
2013-05-13 04:04:00,54.7,51.7,30.02,SSW,202,2.2,8.7,90,0.00,,,0.00,WUHU21636XXSP,2013-05-13 11:04:00,
2013-05-13 04:05:00,54.7,51.7,30.02,SSW,202,2.2,8.7,90,0.00,,,0.00,WUHU21636XXSP,2013-05-13 11:05:00,
2013-05-13 04:06:00,54.7,51.7,30.02,SSW,202,2.2,8.7,90,0.00,,,0.00,WUHU21636XXSP,2013-05-13 11:06:00,
2013-05-13 04:08:00,54.7,51.7,30.02,SSW,202,2.2,8.7,90,0.00,,,0.00,WUHU21636XXSP,2013-05-13 11:08:00,
2013-05-13 04:09:00,54.7,51.7,30.02,SSW,202,2.2,3.3,90,0.00,,,0.00,WUHU21636XXSP,2013-05-13 11:09:00,
2013-05-13 04:10:00,54.7,51.7,30.02,SSW,202,2.2,2.2,90,0.00,,,0.00,WUHU21636XXSP,2013-05-13 11:10:00,
2013-05-13 04:12:00,54.7,51.7,30.02,SSW,202,2.2,2.2,90,0.00,,,0.00,WUHU21636XXSP,2013-05-13 11:12:00,
2013-05-13 04:13:00,54.7,51.7,30.01,ESE,112,8.7,9.6,90,0.00,,,0.00,WUHU21636XXSP,2013-05-13 11:13:00,
2013-05-13 04:14:00,54.7,51.7,30.01,SE,125,3.4,9.6,90,0.00,,,0.00,WUHU21636XXSP,2013-05-13 11:14:00,
2013-05-13 04:15:00,54.7,51.7,30.01,SSW,202,1.1,9.6,90,0.00,,,0.00,WUHU21636XXSP,2013-05-13 11:15:00,
2013-05-13 04:17:00,54.7,51.7,30.01,SSW,202,1.1,9.6,90,0.00,,,0.00,WUHU21636XXSP,2013-05-13 11:17:00,
2013-05-13 04:18:00,54.7,51.7,30.01,SE,135,0.0,9.6,90,0.00,,,0.00,WUHU21636XXSP,2013-05-13 11:18:00,
2013-05-13 04:20:00,54.7,51.7,30.01,SW,225,2.0,9.6,90,0.00,,,0.00,WUHU21636XXSP,2013-05-13 11:20:00,
2013-05-13 04:21:00,54.7,51.7,30.01,SW,225,2.0,9.6,90,0.00,,,0.00,WUHU21636XXSP,2013-05-13 11:21:00,
2013-05-13 04:22:00,54.7,51.7,30.01,SW,225,2.0,9.6,90,0.00,,,0.00,WUHU21636XXSP,2013-05-13 11:22:00,
2013-05-13 04:23:00,54.7,51.7,30.02,SE,135,3.8,3.8,90,0.00,,,0.00,WUHU21636XXSP,2013-05-13 11:23:00,
2013-05-13 04:25:00,54.7,51.7,30.01,SE,135,3.8,3.8,90,0.00,,,0.00,WUHU21636XXSP,2013-05-13 11:25:00,
2013-05-13 04:26:00,54.7,51.7,30.01,SE,135,3.8,3.8,90,0.00,,,0.00,WUHU21636XXSP,2013-05-13 11:26:00,
2013-05-13 04:27:00,54.7,51.7,30.02,WSW,247,0.0,3.8,90,0.00,,,0.00,WUHU21636XXSP,2013-05-13 11:27:00,
2013-05-13 04:28:00,54.7,51.7,30.02,WSW,247,0.0,3.8,90,0.00,,,0.00,WUHU21636XXSP,2013-05-13 11:28:00,
2013-05-13 04:30:00,54.7,51.7,30.02,SSE,157,0.0,3.8,90,0.00,,,0.00,WUHU21636XXSP,2013-05-13 11:30:00,
2013-05-13 04:31:00,54.7,51.7,30.02,SSW,202,0.0,3.8,90,0.00,,,0.00,WUHU21636XXSP,2013-05-13 11:31:00,
2013-05-13 04:32:00,54.7,51.7,30.02,SSW,202,0.0,3.8,90,0.00,,,0.00,WUHU21636XXSP,2013-05-13 11:32:00,
2013-05-13 04:33:00,54.7,51.7,30.02,SSW,202,0.8,3.8,90,0.00,,,0.00,WUHU21636XXSP,2013-05-13 11:33:00,
2013-05-13 04:35:00,54.7,51.7,30.02,SSW,202,0.8,0.8,90,0.00,,,0.00,WUHU21636XXSP,2013-05-13 11:35:00,
2013-05-13 04:37:00,54.7,51.7,30.02,SSW,202,0.8,0.8,90,0.00,,,0.00,WUHU21636XXSP,2013-05-13 11:37:00,
2013-05-13 04:38:00,54.7,51.7,30.02,South,180,3.1,3.1,90,0.00,,,0.00,WUHU21636XXSP,2013-05-13 11:38:00,
2013-05-13 04:40:00,54.7,51.7,30.02,South,187,2.7,3.1,90,0.00,,,0.00,WUHU21636XXSP,2013-05-13 11:40:00,
2013-05-13 04:42:00,54.7,51.7,30.02,SSE,163,3.2,6.9,90,0.00,,,0.00,WUHU21636XXSP,2013-05-13 11:42:00,
2013-05-13 04:43:00,54.7,51.7,30.02,SE,143,2.3,6.9,90,0.00,,,0.00,WUHU21636XXSP,2013-05-13 11:43:00,
2013-05-13 04:45:00,54.7,51.4,30.03,SSW,202,1.1,6.9,89,0.00,,,0.00,WUHU21636XXSP,2013-05-13 11:45:00,
2013-05-13 04:46:00,54.7,51.4,30.02,SSW,202,1.1,6.9,89,0.00,,,0.00,WUHU21636XXSP,2013-05-13 11:46:00,
2013-05-13 04:47:00,54.7,51.7,30.02,SSW,202,3.1,6.9,90,0.00,,,0.00,WUHU21636XXSP,2013-05-13 11:47:00,
2013-05-13 04:49:00,54.7,51.7,30.03,SSW,202,3.1,6.9,90,0.00,,,0.00,WUHU21636XXSP,2013-05-13 11:49:00,
2013-05-13 04:50:00,54.7,51.7,30.02,SSW,202,3.1,6.9,90,0.00,,,0.00,WUHU21636XXSP,2013-05-13 11:50:00,
2013-05-13 04:51:00,54.7,51.7,30.03,SSW,202,0.0,6.9,90,0.00,,,0.00,WUHU21636XXSP,2013-05-13 11:51:00,
2013-05-13 04:52:00,54.7,51.7,30.02,SSW,202,0.0,3.1,90,0.00,,,0.00,WUHU21636XXSP,2013-05-13 11:52:00,
2013-05-13 04:53:00,54.7,51.7,30.02,SSE,157,0.0,3.1,90,0.00,,,0.00,WUHU21636XXSP,2013-05-13 11:53:00,
2013-05-13 04:54:00,54.7,51.7,30.03,SSE,157,0.0,3.1,90,0.00,,,0.00,WUHU21636XXSP,2013-05-13 11:54:00,
2013-05-13 04:55:00,54.7,51.7,30.03,South,180,0.0,3.1,90,0.00,,,0.00,WUHU21636XXSP,2013-05-13 11:55:00,
2013-05-13 04:56:00,54.7,51.7,30.03,South,180,0.0,3.1,90,0.00,,,0.00,WUHU21636XXSP,2013-05-13 11:56:00,
2013-05-13 04:58:00,54.5,51.5,30.03,SW,225,0.0,3.1,90,0.00,,,0.00,WUHU21636XXSP,2013-05-13 11:58:00,
2013-05-13 04:59:00,54.5,51.5,30.03,SW,225,0.0,0.0,90,0.00,,,0.00,WUHU21636XXSP,2013-05-13 11:59:00,
2013-05-13 05:00:00,54.5,51.5,30.03,SW,225,0.0,0.0,90,0.00,,,0.00,WUHU21636XXSP,2013-05-13 12:00:00,
2013-05-13 05:01:00,54.5,51.5,30.03,SW,225,0.0,0.0,90,0.00,,,0.00,WUHU21636XXSP,2013-05-13 12:01:00,
2013-05-13 05:03:00,54.5,51.5,30.03,SW,225,0.0,0.0,90,0.00,,,0.00,WUHU21636XXSP,2013-05-13 12:03:00,
2013-05-13 05:04:00,54.5,51.5,30.03,SW,225,0.0,0.0,90,0.00,,,0.00,WUHU21636XXSP,2013-05-13 12:04:00,
2013-05-13 05:05:00,54.5,51.5,30.03,SW,225,0.0,0.0,90,0.00,,,0.00,WUHU21636XXSP,2013-05-13 12:05:00,
2013-05-13 05:06:00,54.5,51.2,30.03,SW,225,0.0,0.0,89,0.00,,,0.00,WUHU21636XXSP,2013-05-13 12:06:00,
2013-05-13 05:08:00,54.5,51.2,30.03,SW,225,0.0,0.0,89,0.00,,,0.00,WUHU21636XXSP,2013-05-13 12:08:00,
2013-05-13 05:09:00,54.5,51.2,30.03,SW,225,0.0,0.0,89,0.00,,,0.00,WUHU21636XXSP,2013-05-13 12:09:00,
2013-05-13 05:10:00,54.5,51.2,30.03,SW,225,0.0,0.0,89,0.00,,,0.00,WUHU21636XXSP,2013-05-13 12:10:00,
2013-05-13 05:12:00,54.5,51.2,30.03,SW,225,0.0,0.0,89,0.00,,,0.00,WUHU21636XXSP,2013-05-13 12:12:00,
2013-05-13 05:13:00,54.5,51.2,30.03,SW,225,0.0,0.0,89,0.00,,,0.00,WUHU21636XXSP,2013-05-13 12:13:00,
2013-05-13 05:14:00,54.5,51.2,30.03,SW,225,0.0,0.0,89,0.00,,,0.00,WUHU21636XXSP,2013-05-13 12:14:00,
2013-05-13 05:15:00,54.5,51.2,30.03,SSW,202,0.0,0.0,89,0.00,,,0.00,WUHU21636XXSP,2013-05-13 12:15:00,
2013-05-13 05:16:00,54.5,51.2,30.03,SSW,202,0.0,0.0,89,0.00,,,0.00,WUHU21636XXSP,2013-05-13 12:16:00,
2013-05-13 05:17:00,54.5,51.2,30.03,SSW,202,0.0,0.0,89,0.00,,,0.00,WUHU21636XXSP,2013-05-13 12:17:00,
2013-05-13 05:19:00,54.3,51.0,30.03,SSW,202,0.0,0.0,89,0.00,,,0.00,WUHU21636XXSP,2013-05-13 12:19:00,
2013-05-13 05:20:00,54.3,51.0,30.03,SSW,202,0.0,0.0,89,0.00,,,0.00,WUHU21636XXSP,2013-05-13 12:20:00,
2013-05-13 05:21:00,54.3,51.3,30.03,SSW,202,0.0,0.0,90,0.00,,,0.00,WUHU21636XXSP,2013-05-13 12:21:00,
2013-05-13 05:23:00,54.3,51.3,30.03,SSW,202,0.0,0.0,90,0.00,,,0.00,WUHU21636XXSP,2013-05-13 12:23:00,
2013-05-13 05:24:00,54.3,51.3,30.03,South,180,3.1,3.1,90,0.00,,,0.00,WUHU21636XXSP,2013-05-13 12:24:00,
2013-05-13 05:25:00,54.3,51.0,30.03,South,180,3.1,3.1,89,0.00,,,0.00,WUHU21636XXSP,2013-05-13 12:25:00,
2013-05-13 05:26:00,54.3,51.0,30.03,South,180,3.1,3.1,89,0.00,,,0.00,WUHU21636XXSP,2013-05-13 12:26:00,
2013-05-13 05:28:00,54.3,51.0,30.03,South,180,0.0,3.1,89,0.00,,,0.00,WUHU21636XXSP,2013-05-13 12:28:00,
2013-05-13 05:29:00,54.3,51.0,30.03,South,180,0.0,3.1,89,0.00,,,0.00,WUHU21636XXSP,2013-05-13 12:29:00,
2013-05-13 05:30:00,54.3,51.0,30.03,SSE,157,0.0,3.1,89,0.00,,,0.00,WUHU21636XXSP,2013-05-13 12:30:00,
2013-05-13 05:32:00,54.3,51.0,30.03,SSE,157,0.0,3.1,89,0.00,,,0.00,WUHU21636XXSP,2013-05-13 12:32:00,
2013-05-13 05:33:00,54.3,51.0,30.03,SSE,157,0.0,3.1,89,0.00,,,0.00,WUHU21636XXSP,2013-05-13 12:33:00,
2013-05-13 05:34:00,54.3,51.0,30.03,SSE,157,0.0,3.1,89,0.00,,,0.00,WUHU21636XXSP,2013-05-13 12:34:00,
2013-05-13 05:35:00,54.3,51.0,30.03,SSE,157,0.0,3.1,89,0.00,,,0.00,WUHU21636XXSP,2013-05-13 12:35:00,
2013-05-13 05:37:00,54.3,51.0,30.03,SSE,157,0.0,0.0,89,0.00,,,0.00,WUHU21636XXSP,2013-05-13 12:37:00,
2013-05-13 05:38:00,54.3,51.0,30.03,SSE,157,0.0,0.0,89,0.00,,,0.00,WUHU21636XXSP,2013-05-13 12:38:00,
2013-05-13 05:39:00,54.3,51.0,30.03,SSE,157,0.0,0.0,89,0.00,,,0.00,WUHU21636XXSP,2013-05-13 12:39:00,
2013-05-13 05:40:00,54.3,51.0,30.03,SSE,157,0.0,0.0,89,0.00,,,0.00,WUHU21636XXSP,2013-05-13 12:40:00,
2013-05-13 05:41:00,54.5,51.2,30.03,SSE,157,0.0,0.0,89,0.00,,,0.00,WUHU21636XXSP,2013-05-13 12:41:00,
2013-05-13 05:42:00,54.5,51.2,30.03,SSE,157,0.0,0.0,89,0.00,,,0.00,WUHU21636XXSP,2013-05-13 12:42:00,
2013-05-13 05:43:00,54.3,51.0,30.03,SSE,157,0.0,0.0,89,0.00,,,0.00,WUHU21636XXSP,2013-05-13 12:43:00,
2013-05-13 05:44:00,54.3,51.0,30.03,SSE,157,0.0,0.0,89,0.00,,,0.00,WUHU21636XXSP,2013-05-13 12:44:00,
2013-05-13 05:45:00,54.5,51.5,30.03,SSE,157,0.0,0.0,90,0.00,,,0.00,WUHU21636XXSP,2013-05-13 12:45:00,
2013-05-13 05:46:00,54.5,51.5,30.03,SSE,157,0.0,0.0,90,0.00,,,0.00,WUHU21636XXSP,2013-05-13 12:46:00,
2013-05-13 05:47:00,54.3,51.3,30.02,SSE,157,0.0,0.0,90,0.00,,,0.00,WUHU21636XXSP,2013-05-13 12:47:00,
2013-05-13 05:48:00,54.3,51.3,30.03,SSE,157,0.0,0.0,90,0.00,,,0.00,WUHU21636XXSP,2013-05-13 12:48:00,
2013-05-13 05:49:00,54.5,51.5,30.02,SSE,157,0.0,0.0,90,0.00,,,0.00,WUHU21636XXSP,2013-05-13 12:49:00,
2013-05-13 05:50:00,54.5,51.5,30.02,SSE,157,0.0,0.0,90,0.00,,,0.00,WUHU21636XXSP,2013-05-13 12:50:00,
2013-05-13 05:51:00,54.5,51.5,30.02,SSE,157,0.0,0.0,90,0.00,,,0.00,WUHU21636XXSP,2013-05-13 12:51:00,
2013-05-13 05:52:00,54.5,51.5,30.02,SSE,157,0.0,0.0,90,0.00,,,0.00,WUHU21636XXSP,2013-05-13 12:52:00,
2013-05-13 05:54:00,54.3,51.3,30.02,SSE,157,0.0,0.0,90,0.00,,,0.00,WUHU21636XXSP,2013-05-13 12:54:00,
2013-05-13 05:55:00,54.3,51.3,30.02,SSE,157,0.0,0.0,90,0.00,,,0.00,WUHU21636XXSP,2013-05-13 12:55:00,
2013-05-13 05:56:00,54.3,51.3,30.02,SSE,157,0.0,0.0,90,0.00,,,0.00,WUHU21636XXSP,2013-05-13 12:56:00,
2013-05-13 05:57:00,54.3,51.3,30.02,SSE,157,0.0,0.0,90,0.00,,,0.00,WUHU21636XXSP,2013-05-13 12:57:00,
2013-05-13 05:59:00,54.3,51.3,30.02,SSE,157,0.0,0.0,90,0.00,,,0.00,WUHU21636XXSP,2013-05-13 12:59:00,
2013-05-13 06:00:00,54.3,51.3,30.02,SSE,157,0.0,0.0,90,0.00,,,0.00,WUHU21636XXSP,2013-05-13 13:00:00,
2013-05-13 06:01:00,54.3,51.3,30.02,SSE,157,0.0,0.0,90,0.00,,,0.00,WUHU21636XXSP,2013-05-13 13:01:00,
2013-05-13 06:02:00,54.3,51.3,30.02,SSE,157,0.0,0.0,90,0.00,,,0.00,WUHU21636XXSP,2013-05-13 13:02:00,
2013-05-13 06:04:00,54.3,51.3,30.02,SSE,157,0.0,0.0,90,0.00,,,0.00,WUHU21636XXSP,2013-05-13 13:04:00,
2013-05-13 06:05:00,54.3,51.3,30.02,SSE,157,0.0,0.0,90,0.00,,,0.00,WUHU21636XXSP,2013-05-13 13:05:00,
2013-05-13 06:06:00,54.3,51.3,30.02,SSE,157,0.0,0.0,90,0.00,,,0.00,WUHU21636XXSP,2013-05-13 13:06:00,
2013-05-13 06:08:00,54.3,51.3,30.03,SSE,157,0.0,0.0,90,0.00,,,0.00,WUHU21636XXSP,2013-05-13 13:08:00,
2013-05-13 06:10:00,54.3,51.3,30.02,SSE,157,0.0,0.0,90,0.00,,,0.00,WUHU21636XXSP,2013-05-13 13:10:00,
2013-05-13 06:11:00,54.1,51.1,30.02,SSE,157,0.0,0.0,90,0.00,,,0.00,WUHU21636XXSP,2013-05-13 13:11:00,
2013-05-13 06:12:00,54.1,51.1,30.02,SSE,157,0.0,0.0,90,0.00,,,0.00,WUHU21636XXSP,2013-05-13 13:12:00,
2013-05-13 06:13:00,54.1,51.1,30.02,SSE,157,0.0,0.0,90,0.00,,,0.00,WUHU21636XXSP,2013-05-13 13:13:00,
2013-05-13 06:15:00,54.3,51.3,30.02,SSE,157,0.0,0.0,90,0.00,,,0.00,WUHU21636XXSP,2013-05-13 13:15:00,
2013-05-13 06:16:00,54.3,51.3,30.02,SSE,157,0.0,0.0,90,0.00,,,0.00,WUHU21636XXSP,2013-05-13 13:16:00,
2013-05-13 06:17:00,54.1,51.1,30.02,SSE,157,0.0,0.0,90,0.00,,,0.00,WUHU21636XXSP,2013-05-13 13:17:00,
2013-05-13 06:19:00,54.1,51.1,30.02,SSE,157,0.0,0.0,90,0.00,,,0.00,WUHU21636XXSP,2013-05-13 13:19:00,
2013-05-13 06:20:00,54.1,51.1,30.01,SSE,157,0.0,0.0,90,0.00,,,0.00,WUHU21636XXSP,2013-05-13 13:20:00,
2013-05-13 06:21:00,54.1,51.1,30.02,SSE,157,0.0,0.0,90,0.00,,,0.00,WUHU21636XXSP,2013-05-13 13:21:00,
2013-05-13 06:22:00,54.1,51.1,30.02,SSE,157,0.0,0.0,90,0.00,,,0.00,WUHU21636XXSP,2013-05-13 13:22:00,
2013-05-13 06:24:00,54.1,51.1,30.02,South,180,0.0,0.0,90,0.00,,,0.00,WUHU21636XXSP,2013-05-13 13:24:00,
2013-05-13 06:25:00,54.1,51.1,30.02,South,180,0.0,0.0,90,0.00,,,0.00,WUHU21636XXSP,2013-05-13 13:25:00,
2013-05-13 06:26:00,54.3,51.3,30.02,South,180,0.0,0.0,90,0.00,,,0.00,WUHU21636XXSP,2013-05-13 13:26:00,
2013-05-13 06:27:00,54.3,51.3,30.01,South,180,0.0,0.0,90,0.00,,,0.00,WUHU21636XXSP,2013-05-13 13:27:00,
2013-05-13 06:29:00,54.1,51.1,30.02,SSE,157,0.0,0.0,90,0.00,,,0.00,WUHU21636XXSP,2013-05-13 13:29:00,
2013-05-13 06:30:00,54.1,51.1,30.02,South,180,0.0,0.0,90,0.00,,,0.00,WUHU21636XXSP,2013-05-13 13:30:00,
2013-05-13 06:31:00,54.1,51.1,30.02,South,180,0.0,0.0,90,0.00,,,0.00,WUHU21636XXSP,2013-05-13 13:31:00,
2013-05-13 06:32:00,54.3,51.3,30.02,South,180,0.0,0.0,90,0.00,,,0.00,WUHU21636XXSP,2013-05-13 13:32:00,
2013-05-13 06:34:00,54.3,51.3,30.02,South,180,0.0,0.0,90,0.00,,,0.00,WUHU21636XXSP,2013-05-13 13:34:00,
2013-05-13 06:35:00,54.3,51.3,30.02,South,180,0.0,0.0,90,0.00,,,0.00,WUHU21636XXSP,2013-05-13 13:35:00,
2013-05-13 06:36:00,54.3,51.3,30.02,South,180,0.0,0.0,90,0.00,,,0.00,WUHU21636XXSP,2013-05-13 13:36:00,
2013-05-13 06:37:00,54.3,51.3,30.02,South,180,0.0,0.0,90,0.00,,,0.00,WUHU21636XXSP,2013-05-13 13:37:00,
2013-05-13 06:40:00,54.3,51.3,30.02,South,180,0.0,0.0,90,0.00,,,0.00,WUHU21636XXSP,2013-05-13 13:40:00,
2013-05-13 06:41:00,54.3,51.3,30.02,South,180,0.0,0.0,90,0.00,,,0.00,WUHU21636XXSP,2013-05-13 13:41:00,
2013-05-13 06:42:00,54.3,51.3,30.01,South,180,0.0,0.0,90,0.00,,,0.00,WUHU21636XXSP,2013-05-13 13:42:00,
2013-05-13 06:45:00,54.3,51.3,30.02,South,180,0.0,0.0,90,0.00,,,0.00,WUHU21636XXSP,2013-05-13 13:45:00,
2013-05-13 06:46:00,54.5,51.5,30.02,South,180,0.0,0.0,90,0.00,,,0.00,WUHU21636XXSP,2013-05-13 13:46:00,
2013-05-13 06:48:00,54.5,51.5,30.02,South,180,0.0,0.0,90,0.00,,,0.00,WUHU21636XXSP,2013-05-13 13:48:00,
2013-05-13 06:50:00,54.5,51.5,30.02,South,180,0.0,0.0,90,0.00,,,0.00,WUHU21636XXSP,2013-05-13 13:50:00,
2013-05-13 06:51:00,54.5,51.5,30.02,South,180,0.0,0.0,90,0.00,,,0.00,WUHU21636XXSP,2013-05-13 13:51:00,
2013-05-13 06:53:00,54.5,51.5,30.02,South,180,0.0,0.0,90,0.00,,,0.00,WUHU21636XXSP,2013-05-13 13:53:00,
2013-05-13 06:55:00,54.5,51.5,30.02,South,180,0.0,0.0,90,0.00,,,0.00,WUHU21636XXSP,2013-05-13 13:55:00,
2013-05-13 06:56:00,54.5,51.5,30.02,South,180,0.0,0.0,90,0.00,,,0.00,WUHU21636XXSP,2013-05-13 13:56:00,
2013-05-13 06:58:00,54.7,51.7,30.02,South,180,0.0,0.0,90,0.00,,,0.00,WUHU21636XXSP,2013-05-13 13:58:00,
2013-05-13 07:00:00,54.7,51.4,30.02,South,180,0.0,0.0,89,0.00,,,0.00,WUHU21636XXSP,2013-05-13 14:00:00,
2013-05-13 07:01:00,54.7,51.4,30.03,South,180,0.0,0.0,89,0.00,,,0.00,WUHU21636XXSP,2013-05-13 14:01:00,
2013-05-13 07:02:00,54.7,51.4,30.03,South,180,0.0,0.0,89,0.00,,,0.00,WUHU21636XXSP,2013-05-13 14:02:00,
2013-05-13 07:03:00,54.7,51.4,30.02,South,180,0.0,0.0,89,0.00,,,0.00,WUHU21636XXSP,2013-05-13 14:03:00,
2013-05-13 07:05:00,54.7,51.4,30.02,South,180,0.0,0.0,89,0.00,,,0.00,WUHU21636XXSP,2013-05-13 14:05:00,
2013-05-13 07:06:00,55.0,51.7,30.03,South,180,0.0,0.0,89,0.00,,,0.00,WUHU21636XXSP,2013-05-13 14:06:00,
2013-05-13 07:07:00,55.0,51.7,30.02,South,180,0.0,0.0,89,0.00,,,0.00,WUHU21636XXSP,2013-05-13 14:07:00,
2013-05-13 07:08:00,55.0,51.7,30.02,South,180,0.0,0.0,89,0.00,,,0.00,WUHU21636XXSP,2013-05-13 14:08:00,
2013-05-13 07:10:00,55.0,51.7,30.02,South,180,0.0,0.0,89,0.00,,,0.00,WUHU21636XXSP,2013-05-13 14:10:00,
2013-05-13 07:11:00,55.0,51.7,30.03,South,180,0.0,0.0,89,0.00,,,0.00,WUHU21636XXSP,2013-05-13 14:11:00,
2013-05-13 07:12:00,55.0,51.7,30.03,South,180,0.0,0.0,89,0.00,,,0.00,WUHU21636XXSP,2013-05-13 14:12:00,
2013-05-13 07:13:00,55.0,51.4,30.03,SSW,202,0.0,0.0,88,0.00,,,0.00,WUHU21636XXSP,2013-05-13 14:13:00,
2013-05-13 07:15:00,55.0,51.4,30.03,SW,225,0.0,0.0,88,0.00,,,0.00,WUHU21636XXSP,2013-05-13 14:15:00,
2013-05-13 07:17:00,55.0,51.4,30.02,SW,225,0.0,0.0,88,0.00,,,0.00,WUHU21636XXSP,2013-05-13 14:17:00,
2013-05-13 07:18:00,55.0,51.0,30.03,SW,225,0.0,0.0,87,0.00,,,0.00,WUHU21636XXSP,2013-05-13 14:18:00,
2013-05-13 07:21:00,55.0,51.4,30.02,SSE,157,1.3,1.3,88,0.00,,,0.00,WUHU21636XXSP,2013-05-13 14:21:00,
2013-05-13 07:22:00,55.0,51.0,30.02,SSE,157,1.3,1.3,87,0.00,,,0.00,WUHU21636XXSP,2013-05-13 14:22:00,
2013-05-13 07:23:00,55.0,51.0,30.02,SSE,157,1.3,1.3,87,0.00,,,0.00,WUHU21636XXSP,2013-05-13 14:23:00,
2013-05-13 07:26:00,55.2,51.2,30.02,SSE,157,0.0,1.3,87,0.00,,,0.00,WUHU21636XXSP,2013-05-13 14:26:00,
2013-05-13 07:27:00,55.2,51.2,30.03,SSE,157,0.0,1.3,87,0.00,,,0.00,WUHU21636XXSP,2013-05-13 14:27:00,
2013-05-13 07:28:00,55.2,51.2,30.03,SSE,157,0.0,1.3,87,0.00,,,0.00,WUHU21636XXSP,2013-05-13 14:28:00,
2013-05-13 07:31:00,55.2,50.9,30.02,SE,135,0.0,1.3,86,0.00,,,0.00,WUHU21636XXSP,2013-05-13 14:31:00,
2013-05-13 07:32:00,55.2,51.2,30.02,ENE,67,2.9,2.9,87,0.00,,,0.00,WUHU21636XXSP,2013-05-13 14:32:00,
2013-05-13 07:33:00,55.2,51.2,30.02,ENE,67,2.9,2.9,87,0.00,,,0.00,WUHU21636XXSP,2013-05-13 14:33:00,
2013-05-13 07:36:00,55.2,50.9,30.02,ENE,67,2.9,2.9,86,0.00,,,0.00,WUHU21636XXSP,2013-05-13 14:36:00,
2013-05-13 07:37:00,55.6,51.3,30.02,South,180,4.0,4.0,86,0.00,,,0.00,WUHU21636XXSP,2013-05-13 14:37:00,
2013-05-13 07:38:00,55.6,51.3,30.02,South,180,4.0,4.0,86,0.00,,,0.00,WUHU21636XXSP,2013-05-13 14:38:00,
2013-05-13 07:41:00,55.6,51.0,30.02,SSE,157,0.8,4.0,85,0.00,,,0.00,WUHU21636XXSP,2013-05-13 14:41:00,
2013-05-13 07:42:00,55.6,51.0,30.02,SSE,157,0.8,4.0,85,0.00,,,0.00,WUHU21636XXSP,2013-05-13 14:42:00,
2013-05-13 07:43:00,55.6,51.0,30.02,SSE,157,0.8,4.0,85,0.00,,,0.00,WUHU21636XXSP,2013-05-13 14:43:00,
2013-05-13 07:44:00,55.6,51.0,30.02,SSE,157,0.8,4.0,85,0.00,,,0.00,WUHU21636XXSP,2013-05-13 14:44:00,
2013-05-13 07:46:00,55.6,51.0,30.02,SW,225,0.0,4.0,85,0.00,,,0.00,WUHU21636XXSP,2013-05-13 14:46:00,
2013-05-13 07:48:00,55.8,51.2,30.02,SW,225,0.0,4.0,85,0.00,,,0.00,WUHU21636XXSP,2013-05-13 14:48:00,
2013-05-13 07:49:00,55.8,51.2,30.02,SW,225,0.0,0.8,85,0.00,,,0.00,WUHU21636XXSP,2013-05-13 14:49:00,
2013-05-13 07:52:00,55.9,51.3,30.02,WSW,247,0.0,0.8,85,0.00,,,0.00,WUHU21636XXSP,2013-05-13 14:52:00,
2013-05-13 07:53:00,55.9,51.3,30.02,WSW,247,0.0,0.0,85,0.00,,,0.00,WUHU21636XXSP,2013-05-13 14:53:00,
2013-05-13 07:54:00,56.1,51.5,30.02,SSW,202,0.0,0.0,85,0.00,,,0.00,WUHU21636XXSP,2013-05-13 14:54:00,
2013-05-13 07:57:00,55.9,51.3,30.02,NNW,337,0.0,0.0,85,0.00,,,0.00,WUHU21636XXSP,2013-05-13 14:57:00,
2013-05-13 07:58:00,56.1,51.5,30.02,NNW,337,0.0,0.0,85,0.00,,,0.00,WUHU21636XXSP,2013-05-13 14:58:00,
2013-05-13 07:59:00,56.1,51.5,30.02,NNW,337,0.0,0.0,85,0.00,,,0.00,WUHU21636XXSP,2013-05-13 14:59:00,
2013-05-13 08:00:00,56.1,51.5,30.02,NNW,337,0.0,0.0,85,0.00,,,0.00,WUHU21636XXSP,2013-05-13 15:00:00,
2013-05-13 08:02:00,56.1,51.2,30.02,NW,315,0.0,0.0,83,0.00,,,0.00,WUHU21636XXSP,2013-05-13 15:02:00,
2013-05-13 08:04:00,56.1,51.2,30.02,WSW,247,0.0,0.0,83,0.00,,,0.00,WUHU21636XXSP,2013-05-13 15:04:00,
2013-05-13 08:05:00,56.3,51.4,30.02,WSW,247,0.0,0.0,83,0.00,,,0.00,WUHU21636XXSP,2013-05-13 15:05:00,
2013-05-13 08:07:00,56.3,51.4,30.01,SW,225,0.0,0.0,83,0.00,,,0.00,WUHU21636XXSP,2013-05-13 15:07:00,
2013-05-13 08:09:00,56.3,51.4,30.01,SSW,202,0.0,0.0,83,0.00,,,0.00,WUHU21636XXSP,2013-05-13 15:09:00,
2013-05-13 08:10:00,56.3,51.4,30.01,SSW,202,0.0,0.0,83,0.00,,,0.00,WUHU21636XXSP,2013-05-13 15:10:00,
2013-05-13 08:12:00,56.5,51.2,30.02,SW,225,0.0,0.0,82,0.00,,,0.00,WUHU21636XXSP,2013-05-13 15:12:00,
2013-05-13 08:14:00,56.5,51.2,30.02,SW,225,0.0,0.0,82,0.00,,,0.00,WUHU21636XXSP,2013-05-13 15:14:00,
2013-05-13 08:15:00,56.5,51.2,30.02,SW,225,0.0,0.0,82,0.00,,,0.00,WUHU21636XXSP,2013-05-13 15:15:00,
2013-05-13 08:17:00,56.8,51.5,30.02,SW,225,0.0,0.0,82,0.00,,,0.00,WUHU21636XXSP,2013-05-13 15:17:00,
2013-05-13 08:19:00,56.8,51.5,30.02,SW,225,0.0,0.0,82,0.00,,,0.00,WUHU21636XXSP,2013-05-13 15:19:00,
2013-05-13 08:20:00,56.8,51.5,30.02,ESE,112,0.0,0.0,82,0.00,,,0.00,WUHU21636XXSP,2013-05-13 15:20:00,
2013-05-13 08:23:00,56.8,51.2,30.02,SE,135,0.0,0.0,81,0.00,,,0.00,WUHU21636XXSP,2013-05-13 15:23:00,
2013-05-13 08:24:00,56.8,51.2,30.02,SSE,157,0.0,0.0,81,0.00,,,0.00,WUHU21636XXSP,2013-05-13 15:24:00,
2013-05-13 08:25:00,56.8,51.2,30.02,SSE,157,0.0,0.0,81,0.00,,,0.00,WUHU21636XXSP,2013-05-13 15:25:00,
2013-05-13 08:27:00,57.0,51.4,30.01,South,180,0.0,0.0,81,0.00,,,0.00,WUHU21636XXSP,2013-05-13 15:27:00,
2013-05-13 08:28:00,57.0,51.4,30.02,South,180,0.0,0.0,81,0.00,,,0.00,WUHU21636XXSP,2013-05-13 15:28:00,
2013-05-13 08:29:00,57.0,51.1,30.02,South,180,0.0,0.0,80,0.00,,,0.00,WUHU21636XXSP,2013-05-13 15:29:00,
2013-05-13 08:30:00,57.0,51.1,30.02,South,180,0.0,0.0,80,0.00,,,0.00,WUHU21636XXSP,2013-05-13 15:30:00,
2013-05-13 08:32:00,57.2,51.2,30.01,SSW,202,2.4,2.4,80,0.00,,,0.00,WUHU21636XXSP,2013-05-13 15:32:00,
2013-05-13 08:33:00,57.2,51.2,30.02,SSW,202,4.2,8.0,80,0.00,,,0.00,WUHU21636XXSP,2013-05-13 15:33:00,
2013-05-13 08:35:00,57.2,51.2,30.02,South,185,4.7,8.2,80,0.00,,,0.00,WUHU21636XXSP,2013-05-13 15:35:00,
2013-05-13 08:36:00,57.2,51.2,30.02,SSE,163,3.4,8.2,80,0.00,,,0.00,WUHU21636XXSP,2013-05-13 15:36:00,
2013-05-13 08:37:00,57.4,51.8,30.02,SE,135,2.9,8.2,81,0.00,,,0.00,WUHU21636XXSP,2013-05-13 15:37:00,
2013-05-13 08:38:00,57.4,51.8,30.01,SE,135,2.9,8.2,81,0.00,,,0.00,WUHU21636XXSP,2013-05-13 15:38:00,
2013-05-13 08:40:00,57.2,51.6,30.02,SSW,202,4.2,8.2,81,0.00,,,0.00,WUHU21636XXSP,2013-05-13 15:40:00,
2013-05-13 08:41:00,57.2,51.6,30.01,SSW,200,3.9,8.2,81,0.00,,,0.00,WUHU21636XXSP,2013-05-13 15:41:00,
2013-05-13 08:42:00,57.2,51.6,30.01,South,186,2.8,8.2,81,0.00,,,0.00,WUHU21636XXSP,2013-05-13 15:42:00,
2013-05-13 08:43:00,57.4,51.8,30.02,SE,135,1.5,6.7,81,0.00,,,0.00,WUHU21636XXSP,2013-05-13 15:43:00,
2013-05-13 08:45:00,57.4,51.8,30.01,SSW,202,0.0,4.2,81,0.00,,,0.00,WUHU21636XXSP,2013-05-13 15:45:00,
2013-05-13 08:46:00,57.4,51.8,30.01,SSW,202,0.0,4.2,81,0.00,,,0.00,WUHU21636XXSP,2013-05-13 15:46:00,
2013-05-13 08:47:00,57.4,51.8,30.01,SSW,202,0.0,4.2,81,0.00,,,0.00,WUHU21636XXSP,2013-05-13 15:47:00,
2013-05-13 08:48:00,57.4,51.8,30.01,East,90,0.0,4.2,81,0.00,,,0.00,WUHU21636XXSP,2013-05-13 15:48:00,
2013-05-13 08:50:00,57.6,52.0,30.02,SSE,157,3.1,4.2,81,0.00,,,0.00,WUHU21636XXSP,2013-05-13 15:50:00,
2013-05-13 08:51:00,57.6,52.0,30.01,SSE,157,3.1,3.1,81,0.00,,,0.00,WUHU21636XXSP,2013-05-13 15:51:00,
2013-05-13 08:52:00,57.6,52.0,30.01,SSE,157,3.1,3.1,81,0.00,,,0.00,WUHU21636XXSP,2013-05-13 15:52:00,
2013-05-13 08:54:00,57.6,52.0,30.01,SW,225,1.1,3.1,81,0.00,,,0.00,WUHU21636XXSP,2013-05-13 15:54:00,
2013-05-13 08:55:00,57.6,52.0,30.01,SW,225,1.1,3.1,81,0.00,,,0.00,WUHU21636XXSP,2013-05-13 15:55:00,
2013-05-13 08:57:00,57.6,52.0,30.01,SW,225,1.1,3.1,81,0.00,,,0.00,WUHU21636XXSP,2013-05-13 15:57:00,
2013-05-13 08:59:00,57.6,52.0,30.01,South,180,2.0,3.1,81,0.00,,,0.00,WUHU21636XXSP,2013-05-13 15:59:00,
2013-05-13 09:01:00,57.6,52.0,30.01,South,180,2.0,3.1,81,0.00,,,0.00,WUHU21636XXSP,2013-05-13 16:01:00,
2013-05-13 09:02:00,57.6,52.0,30.01,South,180,2.0,2.0,81,0.00,,,0.00,WUHU21636XXSP,2013-05-13 16:02:00,
2013-05-13 09:03:00,57.6,52.3,30.01,ESE,112,0.0,2.0,82,0.00,,,0.00,WUHU21636XXSP,2013-05-13 16:03:00,
2013-05-13 09:05:00,57.6,52.0,30.01,SSE,157,0.6,2.0,81,0.00,,,0.00,WUHU21636XXSP,2013-05-13 16:05:00,
2013-05-13 09:06:00,57.6,52.0,30.01,SSE,157,0.6,2.0,81,0.00,,,0.00,WUHU21636XXSP,2013-05-13 16:06:00,
2013-05-13 09:07:00,57.7,52.1,30.01,SSE,157,0.6,2.0,81,0.00,,,0.00,WUHU21636XXSP,2013-05-13 16:07:00,
2013-05-13 09:08:00,57.7,52.1,30.01,SSE,157,0.6,2.0,81,0.00,,,0.00,WUHU21636XXSP,2013-05-13 16:08:00,
2013-05-13 09:10:00,57.6,52.0,30.01,SW,225,0.0,2.0,81,0.00,,,0.00,WUHU21636XXSP,2013-05-13 16:10:00,
2013-05-13 09:11:00,57.6,52.3,30.01,SSE,157,0.0,0.6,82,0.00,,,0.00,WUHU21636XXSP,2013-05-13 16:11:00,
2013-05-13 09:12:00,57.6,52.3,30.01,SSE,157,0.0,0.6,82,0.00,,,0.00,WUHU21636XXSP,2013-05-13 16:12:00,
2013-05-13 09:14:00,57.6,52.0,30.01,South,180,4.4,4.4,81,0.00,,,0.00,WUHU21636XXSP,2013-05-13 16:14:00,
2013-05-13 09:15:00,57.6,52.0,30.01,South,180,4.4,4.4,81,0.00,,,0.00,WUHU21636XXSP,2013-05-13 16:15:00,
2013-05-13 09:16:00,57.7,52.1,30.01,South,175,3.1,4.4,81,0.00,,,0.00,WUHU21636XXSP,2013-05-13 16:16:00,
2013-05-13 09:17:00,57.7,52.1,30.01,South,173,2.8,4.4,81,0.00,,,0.00,WUHU21636XXSP,2013-05-13 16:17:00,
2013-05-13 09:18:00,57.7,52.4,30.01,SSE,157,1.5,4.4,82,0.00,,,0.00,WUHU21636XXSP,2013-05-13 16:18:00,
2013-05-13 09:19:00,57.7,52.4,30.01,SSE,157,1.5,4.4,82,0.00,,,0.00,WUHU21636XXSP,2013-05-13 16:19:00,
2013-05-13 09:20:00,57.7,52.1,30.01,South,180,0.0,4.4,81,0.00,,,0.00,WUHU21636XXSP,2013-05-13 16:20:00,
2013-05-13 09:21:00,57.7,52.1,30.01,South,180,0.0,4.4,81,0.00,,,0.00,WUHU21636XXSP,2013-05-13 16:21:00,
2013-05-13 09:22:00,57.7,52.1,30.01,South,180,0.0,4.4,81,0.00,,,0.00,WUHU21636XXSP,2013-05-13 16:22:00,
2013-05-13 09:24:00,57.7,52.4,30.01,SSE,157,4.0,4.4,82,0.00,,,0.00,WUHU21636XXSP,2013-05-13 16:24:00,
2013-05-13 09:25:00,57.7,52.4,30.01,SSE,157,4.0,4.4,82,0.00,,,0.00,WUHU21636XXSP,2013-05-13 16:25:00,
2013-05-13 09:27:00,57.7,52.4,30.01,South,180,4.9,4.9,82,0.00,,,0.00,WUHU21636XXSP,2013-05-13 16:27:00,
2013-05-13 09:29:00,57.7,52.4,30.01,South,180,4.9,4.9,82,0.00,,,0.00,WUHU21636XXSP,2013-05-13 16:29:00,
2013-05-13 09:30:00,57.7,52.4,30.00,South,180,4.9,4.9,82,0.00,,,0.00,WUHU21636XXSP,2013-05-13 16:30:00,
2013-05-13 09:32:00,57.9,52.6,30.01,South,180,0.0,4.9,82,0.00,,,0.00,WUHU21636XXSP,2013-05-13 16:32:00,
2013-05-13 09:34:00,57.9,52.6,30.00,SSE,157,0.6,4.9,82,0.00,,,0.00,WUHU21636XXSP,2013-05-13 16:34:00,
2013-05-13 09:35:00,57.9,52.6,30.00,SSE,157,0.6,4.9,82,0.00,,,0.00,WUHU21636XXSP,2013-05-13 16:35:00,
2013-05-13 09:37:00,58.1,52.8,30.00,ESE,112,0.0,4.9,82,0.00,,,0.00,WUHU21636XXSP,2013-05-13 16:37:00,
2013-05-13 09:39:00,58.1,52.8,30.00,NW,315,0.0,0.6,82,0.00,,,0.00,WUHU21636XXSP,2013-05-13 16:39:00,
2013-05-13 09:40:00,58.1,52.8,30.00,NW,315,0.0,0.6,82,0.00,,,0.00,WUHU21636XXSP,2013-05-13 16:40:00,
2013-05-13 09:42:00,58.1,52.5,29.99,SSW,202,0.0,0.6,81,0.00,,,0.00,WUHU21636XXSP,2013-05-13 16:42:00,
2013-05-13 09:43:00,58.1,52.5,29.99,SSW,202,0.0,0.6,81,0.00,,,0.00,WUHU21636XXSP,2013-05-13 16:43:00,
2013-05-13 09:44:00,58.1,52.5,30.00,ESE,112,0.0,0.6,81,0.00,,,0.00,WUHU21636XXSP,2013-05-13 16:44:00,
2013-05-13 09:45:00,58.1,52.5,30.00,ESE,112,0.0,0.0,81,0.00,,,0.00,WUHU21636XXSP,2013-05-13 16:45:00,
2013-05-13 09:47:00,58.1,52.5,29.99,SSE,157,0.0,0.0,81,0.00,,,0.00,WUHU21636XXSP,2013-05-13 16:47:00,
2013-05-13 09:48:00,58.3,52.7,29.99,SSE,157,0.8,0.8,81,0.00,,,0.00,WUHU21636XXSP,2013-05-13 16:48:00,
2013-05-13 09:49:00,58.3,52.7,29.99,SSE,157,0.8,0.8,81,0.00,,,0.00,WUHU21636XXSP,2013-05-13 16:49:00,
2013-05-13 09:50:00,58.3,52.7,29.99,ESE,112,1.7,1.7,81,0.00,,,0.00,WUHU21636XXSP,2013-05-13 16:50:00,
2013-05-13 09:52:00,58.3,52.7,29.99,ESE,112,1.7,1.7,81,0.00,,,0.00,WUHU21636XXSP,2013-05-13 16:52:00,
2013-05-13 09:53:00,58.3,52.7,29.99,ESE,112,1.7,1.7,81,0.00,,,0.00,WUHU21636XXSP,2013-05-13 16:53:00,
2013-05-13 09:55:00,58.5,52.9,29.99,SSW,202,0.0,1.7,81,0.00,,,0.00,WUHU21636XXSP,2013-05-13 16:55:00,
2013-05-13 09:56:00,58.5,52.9,29.99,SSW,202,0.0,1.7,81,0.00,,,0.00,WUHU21636XXSP,2013-05-13 16:56:00,
2013-05-13 09:57:00,58.6,53.0,29.99,SE,135,0.0,1.7,81,0.00,,,0.00,WUHU21636XXSP,2013-05-13 16:57:00,
2013-05-13 09:58:00,58.6,53.0,29.99,SE,135,0.0,1.7,81,0.00,,,0.00,WUHU21636XXSP,2013-05-13 16:58:00,
2013-05-13 10:00:00,58.8,53.1,29.99,SSE,157,4.6,4.6,81,0.00,,,0.00,WUHU21636XXSP,2013-05-13 17:00:00,
2013-05-13 10:01:00,59.0,53.0,29.99,SSE,157,4.6,4.6,80,0.00,,,0.00,WUHU21636XXSP,2013-05-13 17:01:00,
2013-05-13 10:03:00,59.0,53.0,29.99,SSE,157,0.0,4.6,80,0.00,,,0.00,WUHU21636XXSP,2013-05-13 17:03:00,
2013-05-13 10:05:00,59.0,53.3,29.99,WSW,247,0.0,4.6,81,0.00,,,0.00,WUHU21636XXSP,2013-05-13 17:05:00,
2013-05-13 10:06:00,59.0,53.3,29.99,WSW,247,0.0,4.6,81,0.00,,,0.00,WUHU21636XXSP,2013-05-13 17:06:00,
2013-05-13 10:08:00,59.0,53.7,29.99,ESE,112,0.0,4.6,82,0.00,,,0.00,WUHU21636XXSP,2013-05-13 17:08:00,
2013-05-13 10:10:00,59.4,53.4,29.99,SSE,165,5.7,11.8,80,0.00,,,0.00,WUHU21636XXSP,2013-05-13 17:10:00,
2013-05-13 10:11:00,59.4,53.4,29.99,SSE,164,5.5,11.8,80,0.00,,,0.00,WUHU21636XXSP,2013-05-13 17:11:00,
2013-05-13 10:13:00,59.5,54.2,29.99,SSW,202,2.2,11.8,82,0.00,,,0.00,WUHU21636XXSP,2013-05-13 17:13:00,
2013-05-13 10:16:00,59.5,53.8,29.99,South,180,0.4,11.8,81,0.00,,,0.00,WUHU21636XXSP,2013-05-13 17:16:00,
2013-05-13 10:18:00,59.4,53.4,29.99,South,180,0.4,11.8,80,0.00,,,0.00,WUHU21636XXSP,2013-05-13 17:18:00,
2013-05-13 10:19:00,59.4,53.4,29.99,South,180,0.4,11.8,80,0.00,,,0.00,WUHU21636XXSP,2013-05-13 17:19:00,
2013-05-13 10:21:00,59.5,54.2,29.99,South,180,0.0,4.2,82,0.00,,,0.00,WUHU21636XXSP,2013-05-13 17:21:00,
2013-05-13 10:24:00,59.7,53.7,29.99,SE,135,0.0,0.4,80,0.00,,,0.00,WUHU21636XXSP,2013-05-13 17:24:00,
2013-05-13 10:26:00,59.7,53.7,29.98,SE,135,0.0,0.4,80,0.00,,,0.00,WUHU21636XXSP,2013-05-13 17:26:00,
2013-05-13 10:27:00,60.1,54.1,29.98,SE,135,0.0,0.4,80,0.00,,,0.00,WUHU21636XXSP,2013-05-13 17:27:00,
2013-05-13 10:29:00,60.4,54.4,29.98,SE,135,0.0,0.0,80,0.00,,,0.00,WUHU21636XXSP,2013-05-13 17:29:00,
2013-05-13 10:31:00,60.6,54.2,29.98,SSE,157,0.8,0.8,79,0.00,,,0.00,WUHU21636XXSP,2013-05-13 17:31:00,
2013-05-13 10:32:00,60.6,54.2,29.98,SSE,157,0.8,0.8,79,0.00,,,0.00,WUHU21636XXSP,2013-05-13 17:32:00,
2013-05-13 10:34:00,60.8,54.4,29.98,SSE,157,0.8,0.8,79,0.00,,,0.00,WUHU21636XXSP,2013-05-13 17:34:00,
2013-05-13 10:35:00,61.2,54.5,29.98,SW,225,2.0,2.0,78,0.00,,,0.00,WUHU21636XXSP,2013-05-13 17:35:00,
2013-05-13 10:36:00,61.2,54.5,29.98,SW,225,2.0,2.0,78,0.00,,,0.00,WUHU21636XXSP,2013-05-13 17:36:00,
2013-05-13 10:37:00,61.3,54.6,29.98,SSE,157,7.1,7.6,78,0.00,,,0.00,WUHU21636XXSP,2013-05-13 17:37:00,
2013-05-13 10:39:00,61.7,54.6,29.98,SE,138,5.7,12.3,77,0.00,,,0.00,WUHU21636XXSP,2013-05-13 17:39:00,
2013-05-13 10:40:00,61.7,54.6,29.98,South,180,3.8,12.3,77,0.00,,,0.00,WUHU21636XXSP,2013-05-13 17:40:00,
2013-05-13 10:41:00,62.1,54.3,29.98,SE,135,3.1,12.3,75,0.00,,,0.00,WUHU21636XXSP,2013-05-13 17:41:00,
2013-05-13 10:42:00,62.1,54.3,29.98,SE,135,3.1,12.3,75,0.00,,,0.00,WUHU21636XXSP,2013-05-13 17:42:00,
2013-05-13 10:44:00,62.6,54.7,29.98,SSW,203,2.2,12.3,75,0.00,,,0.00,WUHU21636XXSP,2013-05-13 17:44:00,
2013-05-13 10:45:00,62.6,54.7,29.98,SSW,213,1.7,12.3,75,0.00,,,0.00,WUHU21636XXSP,2013-05-13 17:45:00,
2013-05-13 10:46:00,62.8,54.6,29.98,SW,225,8.0,12.3,74,0.00,,,0.00,WUHU21636XXSP,2013-05-13 17:46:00,
2013-05-13 10:47:00,62.8,54.6,29.98,SE,135,5.8,12.3,74,0.00,,,0.00,WUHU21636XXSP,2013-05-13 17:47:00,
2013-05-13 10:50:00,62.8,54.6,29.98,South,180,0.0,10.7,74,0.00,,,0.00,WUHU21636XXSP,2013-05-13 17:50:00,
2013-05-13 10:52:00,62.8,54.2,29.98,NE,45,4.6,10.7,73,0.00,,,0.00,WUHU21636XXSP,2013-05-13 17:52:00,
2013-05-13 10:55:00,62.2,54.0,29.98,NE,45,4.6,10.7,74,0.00,,,0.00,WUHU21636XXSP,2013-05-13 17:55:00,
2013-05-13 10:57:00,62.1,53.9,29.98,SE,135,0.0,4.6,74,0.00,,,0.00,WUHU21636XXSP,2013-05-13 17:57:00,
2013-05-13 11:00:00,62.1,54.3,29.98,SW,225,2.4,4.6,75,0.00,,,0.00,WUHU21636XXSP,2013-05-13 18:00:00,
2013-05-13 11:02:00,61.9,54.1,29.98,SW,225,2.4,4.6,75,0.00,,,0.00,WUHU21636XXSP,2013-05-13 18:02:00,
2013-05-13 11:03:00,61.9,54.1,29.98,ESE,112,0.0,4.6,75,0.00,,,0.00,WUHU21636XXSP,2013-05-13 18:03:00,
2013-05-13 11:05:00,61.5,53.7,29.98,SSE,157,3.1,3.1,75,0.00,,,0.00,WUHU21636XXSP,2013-05-13 18:05:00,
2013-05-13 11:06:00,61.5,53.7,29.98,SSE,157,3.1,3.1,75,0.00,,,0.00,WUHU21636XXSP,2013-05-13 18:06:00,
2013-05-13 11:07:00,61.7,54.2,29.98,SW,225,4.9,4.9,76,0.00,,,0.00,WUHU21636XXSP,2013-05-13 18:07:00,
2013-05-13 11:08:00,61.7,54.2,29.98,SW,225,4.9,4.9,76,0.00,,,0.00,WUHU21636XXSP,2013-05-13 18:08:00,
2013-05-13 11:11:00,61.7,54.2,29.97,SW,225,4.9,4.9,76,0.00,,,0.00,WUHU21636XXSP,2013-05-13 18:11:00,
2013-05-13 11:12:00,61.5,53.7,29.98,NE,45,0.0,4.9,75,0.00,,,0.00,WUHU21636XXSP,2013-05-13 18:12:00,
2013-05-13 11:13:00,61.5,53.7,29.97,NE,45,0.0,4.9,75,0.00,,,0.00,WUHU21636XXSP,2013-05-13 18:13:00,
2013-05-13 11:17:00,62.2,53.6,29.96,WNW,292,2.9,4.9,73,0.00,,,0.00,WUHU21636XXSP,2013-05-13 18:17:00,
2013-05-13 11:18:00,62.2,53.6,29.97,WNW,292,2.9,4.9,73,0.00,,,0.00,WUHU21636XXSP,2013-05-13 18:18:00,
2013-05-13 11:22:00,62.4,53.8,29.96,West,270,0.0,2.9,73,0.00,,,0.00,WUHU21636XXSP,2013-05-13 18:22:00,
2013-05-13 11:23:00,62.8,54.2,29.97,SE,135,0.0,2.9,73,0.00,,,0.00,WUHU21636XXSP,2013-05-13 18:23:00,
2013-05-13 11:24:00,62.8,54.2,29.97,SE,135,0.0,2.9,73,0.00,,,0.00,WUHU21636XXSP,2013-05-13 18:24:00,
2013-05-13 11:27:00,63.3,54.3,29.96,SSE,157,0.4,15.4,72,0.00,,,0.00,WUHU21636XXSP,2013-05-13 18:27:00,
2013-05-13 11:28:00,63.3,53.9,29.96,SSE,157,0.4,15.4,71,0.00,,,0.00,WUHU21636XXSP,2013-05-13 18:28:00,
2013-05-13 11:29:00,63.3,53.9,29.96,SSE,157,0.4,15.4,71,0.00,,,0.00,WUHU21636XXSP,2013-05-13 18:29:00,
2013-05-13 11:32:00,63.3,53.9,29.96,South,180,2.6,15.4,71,0.00,,,0.00,WUHU21636XXSP,2013-05-13 18:32:00,
2013-05-13 11:33:00,63.3,53.9,29.96,South,180,2.3,15.4,71,0.00,,,0.00,WUHU21636XXSP,2013-05-13 18:33:00,
2013-05-13 11:34:00,63.3,53.9,29.96,South,180,2.0,15.4,71,0.00,,,0.00,WUHU21636XXSP,2013-05-13 18:34:00,
2013-05-13 11:38:00,63.3,53.9,29.96,South,180,4.9,4.9,71,0.00,,,0.00,WUHU21636XXSP,2013-05-13 18:38:00,
2013-05-13 11:39:00,63.3,53.9,29.96,SSW,198,4.7,4.9,71,0.00,,,0.00,WUHU21636XXSP,2013-05-13 18:39:00,
2013-05-13 11:43:00,63.3,53.9,29.96,East,90,0.0,4.9,71,0.00,,,0.00,WUHU21636XXSP,2013-05-13 18:43:00,
2013-05-13 11:44:00,63.3,53.9,29.96,East,90,0.0,4.9,71,0.00,,,0.00,WUHU21636XXSP,2013-05-13 18:44:00,
2013-05-13 11:48:00,63.3,53.1,29.96,South,180,4.2,4.9,69,0.00,,,0.00,WUHU21636XXSP,2013-05-13 18:48:00,
2013-05-13 11:49:00,63.3,53.1,29.96,South,180,4.2,4.2,69,0.00,,,0.00,WUHU21636XXSP,2013-05-13 18:49:00,
2013-05-13 11:53:00,63.3,53.5,29.96,SSW,202,0.0,4.2,70,0.00,,,0.00,WUHU21636XXSP,2013-05-13 18:53:00,
2013-05-13 11:54:00,63.3,53.5,29.96,SSW,202,0.0,4.2,70,0.00,,,0.00,WUHU21636XXSP,2013-05-13 18:54:00,
2013-05-13 11:59:00,63.3,53.5,29.96,South,171,3.8,7.1,70,0.00,,,0.00,WUHU21636XXSP,2013-05-13 18:59:00,
2013-05-13 12:00:00,63.3,53.5,29.96,SSE,151,3.1,7.1,70,0.00,,,0.00,WUHU21636XXSP,2013-05-13 19:00:00,
2013-05-13 12:04:00,63.1,52.9,29.96,SE,135,2.6,7.1,69,0.00,,,0.00,WUHU21636XXSP,2013-05-13 19:04:00,
2013-05-13 12:05:00,63.1,52.9,29.96,SE,135,2.6,7.1,69,0.00,,,0.00,WUHU21636XXSP,2013-05-13 19:05:00,
2013-05-13 12:09:00,62.6,54.0,29.96,South,180,0.0,2.6,73,0.00,,,0.00,WUHU21636XXSP,2013-05-13 19:09:00,
2013-05-13 12:10:00,62.2,54.0,29.96,SE,135,3.1,3.1,74,0.00,,,0.00,WUHU21636XXSP,2013-05-13 19:10:00,
2013-05-13 12:14:00,61.3,54.2,29.96,WNW,292,0.0,3.1,77,0.00,,,0.00,WUHU21636XXSP,2013-05-13 19:14:00,
2013-05-13 12:15:00,61.3,54.2,29.97,WNW,292,0.0,3.1,77,0.00,,,0.00,WUHU21636XXSP,2013-05-13 19:15:00,
2013-05-13 12:20:00,60.1,54.4,29.97,West,270,0.0,3.1,81,0.02,,,0.02,WUHU21636XXSP,2013-05-13 19:20:00,
2013-05-13 12:25:00,58.3,53.0,29.97,SW,225,0.2,0.2,82,0.04,,,0.04,WUHU21636XXSP,2013-05-13 19:25:00,
2013-05-13 12:30:00,57.7,52.7,29.97,SW,225,0.0,0.2,83,0.04,,,0.04,WUHU21636XXSP,2013-05-13 19:30:00,
2013-05-13 12:35:00,57.4,53.1,29.97,SSW,202,0.0,0.0,86,0.04,,,0.04,WUHU21636XXSP,2013-05-13 19:35:00,
2013-05-13 12:36:00,57.4,53.4,29.97,SE,135,0.0,0.0,87,0.04,,,0.04,WUHU21636XXSP,2013-05-13 19:36:00,
2013-05-13 12:40:00,57.4,53.7,29.96,SE,135,0.0,0.0,88,0.04,,,0.04,WUHU21636XXSP,2013-05-13 19:40:00,
2013-05-13 12:41:00,57.4,53.7,29.96,SE,135,0.0,0.0,88,0.04,,,0.04,WUHU21636XXSP,2013-05-13 19:41:00,
2013-05-13 12:45:00,57.0,53.3,29.97,SSE,157,0.0,0.0,88,0.04,,,0.04,WUHU21636XXSP,2013-05-13 19:45:00,
2013-05-13 12:46:00,57.0,53.3,29.97,SSE,157,0.0,0.0,88,0.04,,,0.04,WUHU21636XXSP,2013-05-13 19:46:00,
2013-05-13 12:50:00,57.0,53.6,29.96,SSW,202,0.0,0.0,89,0.04,,,0.04,WUHU21636XXSP,2013-05-13 19:50:00,
2013-05-13 12:51:00,57.0,53.6,29.96,SSW,202,0.0,0.0,89,0.04,,,0.04,WUHU21636XXSP,2013-05-13 19:51:00,
2013-05-13 12:55:00,57.0,53.3,29.97,SSE,157,0.8,6.4,88,0.04,,,0.04,WUHU21636XXSP,2013-05-13 19:55:00,
2013-05-13 12:56:00,57.0,53.3,29.97,SSE,157,0.8,6.4,88,0.04,,,0.04,WUHU21636XXSP,2013-05-13 19:56:00,
2013-05-13 13:01:00,56.8,52.8,29.97,SW,236,2.6,6.4,87,0.04,,,0.04,WUHU21636XXSP,2013-05-13 20:01:00,
2013-05-13 13:06:00,56.8,52.5,29.97,WSW,247,1.1,2.9,86,0.04,,,0.04,WUHU21636XXSP,2013-05-13 20:06:00,
2013-05-13 13:07:00,56.8,52.8,29.97,WSW,247,2.9,2.9,87,0.04,,,0.04,WUHU21636XXSP,2013-05-13 20:07:00,
2013-05-13 13:11:00,56.5,52.8,29.97,West,270,2.9,2.9,88,0.04,,,0.04,WUHU21636XXSP,2013-05-13 20:11:00,
2013-05-13 13:12:00,56.5,52.8,29.97,West,270,2.9,2.9,88,0.04,,,0.04,WUHU21636XXSP,2013-05-13 20:12:00,
2013-05-13 13:16:00,55.9,51.9,29.97,West,268,2.4,9.8,87,0.04,,,0.06,WUHU21636XXSP,2013-05-13 20:16:00,
2013-05-13 13:17:00,55.9,51.9,29.97,West,266,2.0,9.8,87,0.04,,,0.06,WUHU21636XXSP,2013-05-13 20:17:00,
2013-05-13 13:21:00,55.6,51.6,29.97,WSW,247,2.9,9.8,87,0.02,,,0.06,WUHU21636XXSP,2013-05-13 20:21:00,
2013-05-13 13:22:00,55.6,51.6,29.97,WSW,247,2.9,9.8,87,0.02,,,0.06,WUHU21636XXSP,2013-05-13 20:22:00,
2013-05-13 13:27:00,55.9,51.9,29.97,SW,230,2.2,6.7,87,0.02,,,0.06,WUHU21636XXSP,2013-05-13 20:27:00,
2013-05-13 13:32:00,56.1,51.8,29.97,WSW,247,0.8,6.7,86,0.02,,,0.06,WUHU21636XXSP,2013-05-13 20:32:00,
2013-05-13 13:33:00,56.1,51.8,29.97,WSW,247,0.8,5.8,86,0.02,,,0.06,WUHU21636XXSP,2013-05-13 20:33:00,
2013-05-13 13:37:00,56.5,52.5,29.97,WSW,247,3.1,3.1,87,0.02,,,0.06,WUHU21636XXSP,2013-05-13 20:37:00,
2013-05-13 13:38:00,56.5,52.5,29.97,WSW,247,3.1,3.1,87,0.02,,,0.06,WUHU21636XXSP,2013-05-13 20:38:00,
2013-05-13 13:42:00,57.0,52.4,29.97,SSE,165,5.6,16.5,85,0.02,,,0.06,WUHU21636XXSP,2013-05-13 20:42:00,
2013-05-13 13:43:00,57.0,52.4,29.97,West,270,3.8,16.5,85,0.02,,,0.06,WUHU21636XXSP,2013-05-13 20:43:00,
2013-05-13 13:44:00,57.4,52.8,29.97,South,180,3.1,16.5,85,0.02,,,0.06,WUHU21636XXSP,2013-05-13 20:44:00,
2013-05-13 13:47:00,57.6,53.3,29.97,South,180,3.1,16.5,86,0.02,,,0.06,WUHU21636XXSP,2013-05-13 20:47:00,
2013-05-13 13:48:00,57.7,52.7,29.97,NW,315,2.0,16.5,83,0.02,,,0.06,WUHU21636XXSP,2013-05-13 20:48:00,
2013-05-13 13:49:00,57.7,52.7,29.96,NW,315,2.0,16.5,83,0.02,,,0.06,WUHU21636XXSP,2013-05-13 20:49:00,
2013-05-13 13:52:00,58.6,53.9,29.96,WSW,241,3.1,3.5,85,0.02,,,0.06,WUHU21636XXSP,2013-05-13 20:52:00,
2013-05-13 13:53:00,58.6,53.9,29.96,SW,230,2.5,3.5,85,0.02,,,0.06,WUHU21636XXSP,2013-05-13 20:53:00,
2013-05-13 13:54:00,58.6,53.9,29.96,SSW,202,1.7,3.5,85,0.02,,,0.06,WUHU21636XXSP,2013-05-13 20:54:00,
2013-05-13 13:58:00,59.0,54.0,29.96,WSW,247,0.4,3.5,83,0.02,,,0.06,WUHU21636XXSP,2013-05-13 20:58:00,
2013-05-13 13:59:00,59.0,53.3,29.96,West,270,4.6,4.6,81,0.02,,,0.06,WUHU21636XXSP,2013-05-13 20:59:00,
2013-05-13 14:03:00,59.5,53.5,29.96,SW,225,2.2,4.6,80,0.02,,,0.06,WUHU21636XXSP,2013-05-13 21:03:00,
2013-05-13 14:04:00,59.5,53.5,29.96,SW,225,2.2,4.6,80,0.02,,,0.06,WUHU21636XXSP,2013-05-13 21:04:00,
2013-05-13 14:08:00,59.9,53.2,29.97,SSW,203,2.9,7.8,78,0.02,,,0.06,WUHU21636XXSP,2013-05-13 21:08:00,
2013-05-13 14:09:00,59.9,53.2,29.97,SSW,211,2.8,7.8,78,0.02,,,0.06,WUHU21636XXSP,2013-05-13 21:09:00,
2013-05-13 14:13:00,59.7,51.9,29.96,WSW,247,2.6,10.5,75,0.00,,,0.06,WUHU21636XXSP,2013-05-13 21:13:00,
2013-05-13 14:14:00,59.9,52.8,29.96,WSW,247,2.6,10.5,77,0.00,,,0.06,WUHU21636XXSP,2013-05-13 21:14:00,
2013-05-13 14:15:00,59.9,52.8,29.96,WSW,247,2.6,10.5,77,0.00,,,0.06,WUHU21636XXSP,2013-05-13 21:15:00,
2013-05-13 14:19:00,60.4,53.0,29.96,SW,225,1.1,10.5,76,0.00,,,0.06,WUHU21636XXSP,2013-05-13 21:19:00,
2013-05-13 14:20:00,60.4,53.3,29.96,SW,225,2.0,10.5,77,0.00,,,0.06,WUHU21636XXSP,2013-05-13 21:20:00,
2013-05-13 14:24:00,60.4,51.9,29.96,WSW,244,3.8,7.6,73,0.00,,,0.06,WUHU21636XXSP,2013-05-13 21:24:00,
2013-05-13 14:25:00,60.3,52.1,29.97,WSW,239,3.1,7.6,74,0.00,,,0.06,WUHU21636XXSP,2013-05-13 21:25:00,
2013-05-13 14:29:00,60.1,52.3,29.97,West,259,3.6,7.6,75,0.00,,,0.06,WUHU21636XXSP,2013-05-13 21:29:00,
2013-05-13 14:30:00,60.1,52.3,29.96,WSW,247,3.0,7.6,75,0.00,,,0.06,WUHU21636XXSP,2013-05-13 21:30:00,
2013-05-13 14:35:00,59.7,52.6,29.96,West,270,0.9,6.4,77,0.00,,,0.06,WUHU21636XXSP,2013-05-13 21:35:00,
2013-05-13 14:40:00,59.5,51.7,29.96,SW,225,1.3,1.4,75,0.00,,,0.06,WUHU21636XXSP,2013-05-13 21:40:00,
2013-05-13 14:45:00,59.7,52.6,29.96,SW,225,0.0,1.3,77,0.00,,,0.06,WUHU21636XXSP,2013-05-13 21:45:00,
2013-05-13 14:50:00,60.1,53.4,29.97,South,180,1.3,1.3,78,0.00,,,0.06,WUHU21636XXSP,2013-05-13 21:50:00,
2013-05-13 14:55:00,60.4,53.3,29.97,SSE,161,0.7,1.3,77,0.00,,,0.06,WUHU21636XXSP,2013-05-13 21:55:00,
2013-05-13 15:00:00,60.8,53.0,29.97,WSW,238,0.6,1.3,75,0.00,,,0.06,WUHU21636XXSP,2013-05-13 22:00:00,
2013-05-13 15:05:00,60.6,50.9,29.97,West,270,1.5,2.0,70,0.00,,,0.06,WUHU21636XXSP,2013-05-13 22:05:00,
2013-05-13 15:10:00,60.4,50.7,29.96,WSW,257,1.7,2.0,70,0.00,,,0.06,WUHU21636XXSP,2013-05-13 22:10:00,
2013-05-13 15:15:00,60.3,49.4,29.96,West,270,2.1,4.5,67,0.00,,,0.06,WUHU21636XXSP,2013-05-13 22:15:00,
2013-05-13 15:20:00,59.9,49.0,29.97,West,270,1.8,4.5,67,0.00,,,0.06,WUHU21636XXSP,2013-05-13 22:20:00,
2013-05-13 15:25:00,59.9,48.6,29.97,SSW,203,0.8,3.7,66,0.00,,,0.06,WUHU21636XXSP,2013-05-13 22:25:00,
2013-05-13 15:30:00,60.4,49.1,29.97,SW,228,1.9,2.9,66,0.00,,,0.06,WUHU21636XXSP,2013-05-13 22:30:00,
2013-05-13 15:35:00,60.4,48.3,29.97,West,260,1.7,2.4,64,0.00,,,0.06,WUHU21636XXSP,2013-05-13 22:35:00,
2013-05-13 15:40:00,60.4,49.1,29.98,WSW,248,1.9,3.3,66,0.00,,,0.06,WUHU21636XXSP,2013-05-13 22:40:00,
2013-05-13 15:45:00,60.4,49.1,29.98,SW,236,0.9,3.3,66,0.00,,,0.06,WUHU21636XXSP,2013-05-13 22:45:00,
2013-05-13 15:50:00,60.4,49.1,29.98,WSW,248,2.4,3.3,66,0.00,,,0.06,WUHU21636XXSP,2013-05-13 22:50:00,
2013-05-13 15:55:00,59.7,50.0,29.98,WSW,248,1.5,2.8,70,0.00,,,0.06,WUHU21636XXSP,2013-05-13 22:55:00,
2013-05-13 16:00:00,59.0,51.3,29.98,West,270,0.7,3.7,75,0.00,,,0.06,WUHU21636XXSP,2013-05-13 23:00:00,
2013-05-13 16:05:00,57.9,50.2,29.98,North,0,0.8,3.7,75,0.00,,,0.06,WUHU21636XXSP,2013-05-13 23:05:00,
2013-05-13 16:10:00,57.6,49.9,29.98,SW,225,1.0,2.1,75,0.00,,,0.06,WUHU21636XXSP,2013-05-13 23:10:00,
2013-05-13 16:15:00,57.2,49.1,29.98,WSW,247,0.9,1.3,74,0.00,,,0.06,WUHU21636XXSP,2013-05-13 23:15:00,
2013-05-13 16:20:00,57.6,49.2,29.98,West,267,1.1,1.4,73,0.00,,,0.06,WUHU21636XXSP,2013-05-13 23:20:00,
2013-05-13 16:23:00,57.7,48.5,29.98,WSW,248,0.3,1.4,71,0.00,,,0.06,WUHU21636XXSP,2013-05-13 23:23:00,
2013-05-13 16:25:00,57.7,48.1,29.98,SSW,203,1.6,4.1,70,0.00,,,0.06,WUHU21636XXSP,2013-05-13 23:25:00,
2013-05-13 16:30:00,57.9,48.3,29.98,West,270,1.9,6.2,70,0.00,,,0.06,WUHU21636XXSP,2013-05-13 23:30:00,
2013-05-13 16:35:00,58.5,48.5,29.99,WSW,248,1.7,6.2,69,0.00,,,0.06,WUHU21636XXSP,2013-05-13 23:35:00,
2013-05-13 16:46:00,57.7,46.1,30.00,WSW,253,2.4,6.5,65,0.00,,,0.06,WUHU21636XXSP,2013-05-13 23:46:00,
2013-05-13 16:51:00,55.2,46.5,30.01,West,270,4.2,18.1,72,0.00,,,0.06,WUHU21636XXSP,2013-05-13 23:51:00,
2013-05-13 16:52:00,55.2,46.5,30.01,West,270,4.2,18.1,72,0.00,,,0.06,WUHU21636XXSP,2013-05-13 23:52:00,
2013-05-13 16:56:00,54.7,46.7,30.01,WSW,247,1.3,18.1,74,0.00,,,0.06,WUHU21636XXSP,2013-05-13 23:56:00,
2013-05-13 16:57:00,54.7,46.7,30.01,WSW,247,1.3,6.9,74,0.00,,,0.06,WUHU21636XXSP,2013-05-13 23:57:00,
2013-05-13 17:01:00,55.0,47.0,30.02,SW,225,3.1,3.1,74,0.00,,,0.06,WUHU21636XXSP,2013-05-14 00:01:00,
2013-05-13 17:02:00,55.0,47.0,30.02,SW,225,3.1,3.1,74,0.00,,,0.06,WUHU21636XXSP,2013-05-14 00:02:00,
2013-05-13 17:07:00,55.6,47.6,30.02,South,180,2.9,3.1,74,0.00,,,0.06,WUHU21636XXSP,2013-05-14 00:07:00,
2013-05-13 17:12:00,55.9,47.2,30.02,SW,225,1.3,7.6,72,0.00,,,0.06,WUHU21636XXSP,2013-05-14 00:12:00,
2013-05-13 17:17:00,56.1,46.2,30.02,SW,225,0.0,7.6,69,0.00,,,0.06,WUHU21636XXSP,2013-05-14 00:17:00,
2013-05-13 17:18:00,56.3,46.8,30.02,WSW,247,1.5,7.6,70,0.00,,,0.06,WUHU21636XXSP,2013-05-14 00:18:00,
2013-05-13 17:22:00,56.5,45.8,30.02,WSW,247,0.0,1.5,67,0.00,,,0.06,WUHU21636XXSP,2013-05-14 00:22:00,
2013-05-13 17:23:00,56.5,45.8,30.02,WSW,247,0.0,1.5,67,0.00,,,0.06,WUHU21636XXSP,2013-05-14 00:23:00,
2013-05-13 17:27:00,56.7,46.0,30.02,West,274,1.2,2.2,67,0.00,,,0.06,WUHU21636XXSP,2013-05-14 00:27:00,
2013-05-13 17:28:00,56.8,46.5,30.03,WNW,292,0.4,2.2,68,0.00,,,0.06,WUHU21636XXSP,2013-05-14 00:28:00,
2013-05-13 17:32:00,57.0,45.9,30.03,SW,225,0.0,2.2,66,0.00,,,0.06,WUHU21636XXSP,2013-05-14 00:32:00,
2013-05-13 17:33:00,57.2,45.6,30.03,WSW,247,0.4,2.2,65,0.00,,,0.06,WUHU21636XXSP,2013-05-14 00:33:00,
2013-05-13 17:34:00,57.2,45.6,30.03,WSW,247,0.4,2.2,65,0.00,,,0.06,WUHU21636XXSP,2013-05-14 00:34:00,
2013-05-13 17:36:00,57.2,45.2,30.03,NW,315,2.2,2.2,64,0.00,,,0.06,WUHU21636XXSP,2013-05-14 00:36:00,
2013-05-13 17:37:00,57.2,45.6,30.03,NW,315,2.2,2.2,65,0.00,,,0.06,WUHU21636XXSP,2013-05-14 00:37:00,
2013-05-13 17:38:00,57.2,45.6,30.03,NW,315,2.2,2.2,65,0.00,,,0.06,WUHU21636XXSP,2013-05-14 00:38:00,
2013-05-13 17:39:00,57.4,45.4,30.04,SW,225,0.0,2.2,64,0.00,,,0.06,WUHU21636XXSP,2013-05-14 00:39:00,
2013-05-13 17:41:00,57.4,45.4,30.04,SW,225,0.0,2.2,64,0.00,,,0.06,WUHU21636XXSP,2013-05-14 00:41:00,
2013-05-13 17:43:00,57.4,43.6,30.04,WSW,247,2.6,2.6,60,0.00,,,0.06,WUHU21636XXSP,2013-05-14 00:43:00,
2013-05-13 17:44:00,57.4,43.6,30.04,WSW,247,2.6,2.6,60,0.00,,,0.06,WUHU21636XXSP,2013-05-14 00:44:00,
2013-05-13 17:46:00,57.4,44.5,30.04,SW,225,3.3,3.3,62,0.00,,,0.06,WUHU21636XXSP,2013-05-14 00:46:00,
2013-05-13 17:47:00,57.4,44.5,30.04,SW,225,3.3,3.3,62,0.00,,,0.06,WUHU21636XXSP,2013-05-14 00:47:00,
2013-05-13 17:48:00,57.4,44.5,30.04,SW,225,3.3,3.3,62,0.00,,,0.06,WUHU21636XXSP,2013-05-14 00:48:00,
2013-05-13 17:49:00,57.4,44.5,30.05,SW,225,3.3,3.3,62,0.00,,,0.06,WUHU21636XXSP,2013-05-14 00:49:00,
2013-05-13 17:51:00,57.4,45.0,30.05,WSW,247,2.0,3.3,63,0.00,,,0.06,WUHU21636XXSP,2013-05-14 00:51:00,
2013-05-13 17:52:00,57.4,43.6,30.05,WSW,248,1.9,3.3,60,0.00,,,0.06,WUHU21636XXSP,2013-05-14 00:52:00,
2013-05-13 17:54:00,57.6,43.8,30.05,West,270,5.8,6.2,60,0.00,,,0.06,WUHU21636XXSP,2013-05-14 00:54:00,
2013-05-13 17:56:00,57.6,43.8,30.05,WSW,246,2.6,6.2,60,0.00,,,0.06,WUHU21636XXSP,2013-05-14 00:56:00,
2013-05-13 17:57:00,57.4,44.1,30.05,South,180,1.3,6.2,61,0.00,,,0.06,WUHU21636XXSP,2013-05-14 00:57:00,
2013-05-13 17:58:00,57.4,44.1,30.05,South,180,1.3,6.2,61,0.00,,,0.06,WUHU21636XXSP,2013-05-14 00:58:00,
2013-05-13 17:59:00,57.6,43.8,30.05,NW,315,4.0,6.2,60,0.00,,,0.06,WUHU21636XXSP,2013-05-14 00:59:00,
2013-05-13 18:01:00,57.6,43.8,30.05,NW,315,4.0,6.2,60,0.00,,,0.06,WUHU21636XXSP,2013-05-14 01:01:00,
2013-05-13 18:02:00,57.4,42.7,30.05,WNW,301,2.6,6.2,58,0.00,,,0.06,WUHU21636XXSP,2013-05-14 01:02:00,
2013-05-13 18:03:00,57.4,42.7,30.05,West,270,1.4,6.2,58,0.00,,,0.06,WUHU21636XXSP,2013-05-14 01:03:00,
2013-05-13 18:06:00,57.4,42.7,30.06,West,265,0.7,4.0,58,0.00,,,0.06,WUHU21636XXSP,2013-05-14 01:06:00,
2013-05-13 18:07:00,57.4,42.7,30.06,WSW,247,0.6,4.0,58,0.00,,,0.06,WUHU21636XXSP,2013-05-14 01:07:00,
2013-05-13 18:08:00,57.4,43.2,30.06,WSW,247,0.6,4.0,59,0.00,,,0.06,WUHU21636XXSP,2013-05-14 01:08:00,
2013-05-13 18:09:00,57.4,43.2,30.06,NW,315,0.0,4.0,59,0.00,,,0.06,WUHU21636XXSP,2013-05-14 01:09:00,
2013-05-13 18:11:00,57.4,43.2,30.06,WSW,247,0.0,4.0,59,0.00,,,0.06,WUHU21636XXSP,2013-05-14 01:11:00,
2013-05-13 18:12:00,57.4,42.7,30.06,West,270,1.5,1.5,58,0.00,,,0.06,WUHU21636XXSP,2013-05-14 01:12:00,
2013-05-13 18:13:00,57.4,42.7,30.06,West,270,1.5,1.5,58,0.00,,,0.06,WUHU21636XXSP,2013-05-14 01:13:00,
2013-05-13 18:14:00,57.4,42.2,30.06,West,270,1.5,1.5,57,0.00,,,0.06,WUHU21636XXSP,2013-05-14 01:14:00,
2013-05-13 18:17:00,57.4,42.7,30.06,WSW,247,0.0,1.5,58,0.00,,,0.06,WUHU21636XXSP,2013-05-14 01:17:00,
2013-05-13 18:18:00,57.4,41.2,30.06,WSW,247,2.6,2.6,55,0.00,,,0.06,WUHU21636XXSP,2013-05-14 01:18:00,
2013-05-13 18:20:00,57.4,41.2,30.06,WSW,247,2.6,2.6,55,0.00,,,0.06,WUHU21636XXSP,2013-05-14 01:20:00,
2013-05-13 18:21:00,57.0,41.4,30.06,WSW,247,5.1,5.1,56,0.00,,,0.06,WUHU21636XXSP,2013-05-14 01:21:00,
2013-05-13 18:22:00,57.0,41.4,30.06,WSW,247,5.1,5.1,56,0.00,,,0.06,WUHU21636XXSP,2013-05-14 01:22:00,
2013-05-13 18:23:00,57.0,40.9,30.06,WSW,247,3.3,5.1,55,0.00,,,0.06,WUHU21636XXSP,2013-05-14 01:23:00,
2013-05-13 18:25:00,57.0,40.9,30.06,WSW,247,0.6,5.1,55,0.00,,,0.06,WUHU21636XXSP,2013-05-14 01:25:00,
2013-05-13 18:26:00,56.8,41.2,30.06,West,270,4.4,5.1,56,0.00,,,0.06,WUHU21636XXSP,2013-05-14 01:26:00,
2013-05-13 18:28:00,56.8,40.7,30.06,West,270,2.8,5.1,55,0.00,,,0.06,WUHU21636XXSP,2013-05-14 01:28:00,
2013-05-13 18:30:00,56.8,41.2,30.06,South,180,3.5,5.1,56,0.00,,,0.06,WUHU21636XXSP,2013-05-14 01:30:00,
2013-05-13 18:31:00,56.8,41.2,30.06,South,180,3.5,5.1,56,0.00,,,0.06,WUHU21636XXSP,2013-05-14 01:31:00,
2013-05-13 18:32:00,56.7,40.6,30.06,SSW,197,2.2,5.1,55,0.00,,,0.06,WUHU21636XXSP,2013-05-14 01:32:00,
2013-05-13 18:33:00,56.5,40.9,30.06,WSW,246,1.1,4.4,56,0.00,,,0.06,WUHU21636XXSP,2013-05-14 01:33:00,
2013-05-13 18:35:00,56.5,40.9,30.06,SW,234,0.7,4.4,56,0.00,,,0.06,WUHU21636XXSP,2013-05-14 01:35:00,
2013-05-13 18:36:00,56.5,40.4,30.06,WSW,247,3.1,4.4,55,0.00,,,0.06,WUHU21636XXSP,2013-05-14 01:36:00,
2013-05-13 18:37:00,56.5,40.4,30.06,WSW,247,3.1,3.5,55,0.00,,,0.06,WUHU21636XXSP,2013-05-14 01:37:00,
2013-05-13 18:40:00,56.5,40.9,30.06,NW,315,4.9,4.9,56,0.00,,,0.06,WUHU21636XXSP,2013-05-14 01:40:00,
2013-05-13 18:41:00,56.1,40.0,30.06,WNW,291,4.1,4.9,55,0.00,,,0.06,WUHU21636XXSP,2013-05-14 01:41:00,
2013-05-13 18:42:00,56.1,40.0,30.06,West,270,3.3,4.9,55,0.00,,,0.06,WUHU21636XXSP,2013-05-14 01:42:00,
2013-05-13 18:43:00,56.1,40.0,30.06,West,270,2.7,4.9,55,0.00,,,0.06,WUHU21636XXSP,2013-05-14 01:43:00,
2013-05-13 18:45:00,56.1,40.5,30.06,West,270,2.3,4.9,56,0.00,,,0.06,WUHU21636XXSP,2013-05-14 01:45:00,
2013-05-13 18:46:00,56.1,40.5,30.06,West,270,2.2,4.9,56,0.00,,,0.06,WUHU21636XXSP,2013-05-14 01:46:00,
2013-05-13 18:47:00,55.9,40.3,30.06,WSW,247,4.6,4.9,56,0.00,,,0.06,WUHU21636XXSP,2013-05-14 01:47:00,
2013-05-13 18:48:00,55.9,40.3,30.07,West,270,6.0,6.7,56,0.00,,,0.06,WUHU21636XXSP,2013-05-14 01:48:00,
2013-05-13 18:51:00,55.9,39.8,30.07,West,270,1.7,6.7,55,0.00,,,0.06,WUHU21636XXSP,2013-05-14 01:51:00,
2013-05-13 18:52:00,55.8,40.2,30.07,West,270,1.7,6.7,56,0.00,,,0.06,WUHU21636XXSP,2013-05-14 01:52:00,
2013-05-13 18:53:00,55.8,40.2,30.07,West,270,1.7,6.7,56,0.00,,,0.06,WUHU21636XXSP,2013-05-14 01:53:00,
2013-05-13 18:55:00,55.8,40.2,30.08,West,270,1.7,6.7,56,0.00,,,0.06,WUHU21636XXSP,2013-05-14 01:55:00,
2013-05-13 18:56:00,55.6,40.0,30.08,NW,315,1.7,6.7,56,0.00,,,0.06,WUHU21636XXSP,2013-05-14 01:56:00,
2013-05-13 18:57:00,55.6,40.0,30.08,NW,315,1.7,6.7,56,0.00,,,0.06,WUHU21636XXSP,2013-05-14 01:57:00,
2013-05-13 18:58:00,55.6,40.0,30.09,WSW,247,3.5,6.0,56,0.00,,,0.06,WUHU21636XXSP,2013-05-14 01:58:00,
2013-05-13 19:00:00,55.6,40.0,30.09,WSW,248,3.4,3.5,56,0.00,,,0.06,WUHU21636XXSP,2013-05-14 02:00:00,
2013-05-13 19:02:00,55.2,39.2,30.09,West,270,3.3,3.5,55,0.00,,,0.06,WUHU21636XXSP,2013-05-14 02:02:00,
2013-05-13 19:03:00,55.2,39.2,30.09,West,270,3.3,3.5,55,0.00,,,0.06,WUHU21636XXSP,2013-05-14 02:03:00,
2013-05-13 19:05:00,55.2,39.7,30.09,West,270,3.3,3.5,56,0.00,,,0.06,WUHU21636XXSP,2013-05-14 02:05:00,
2013-05-13 19:06:00,55.2,39.7,30.09,NW,315,0.0,3.5,56,0.00,,,0.06,WUHU21636XXSP,2013-05-14 02:06:00,
2013-05-13 19:07:00,55.2,39.7,30.09,West,270,0.2,3.5,56,0.00,,,0.06,WUHU21636XXSP,2013-05-14 02:07:00,
2013-05-13 19:08:00,55.0,39.5,30.09,West,270,0.2,3.5,56,0.00,,,0.06,WUHU21636XXSP,2013-05-14 02:08:00,
2013-05-13 19:10:00,55.0,39.5,30.10,West,270,0.2,3.3,56,0.00,,,0.06,WUHU21636XXSP,2013-05-14 02:10:00,
2013-05-13 19:11:00,55.0,39.5,30.10,WNW,292,0.0,3.3,56,0.00,,,0.06,WUHU21636XXSP,2013-05-14 02:11:00,
2013-05-13 19:23:00,54.5,40.0,30.11,NW,315,2.0,2.0,58,0.00,,,0.06,WUHU21636XXSP,2013-05-14 02:23:00,
2013-05-13 19:28:00,54.3,39.3,30.11,West,270,1.1,2.0,57,0.00,,,0.06,WUHU21636XXSP,2013-05-14 02:28:00,
2013-05-13 19:30:00,54.3,39.3,30.11,West,270,1.1,2.0,57,0.00,,,0.06,WUHU21636XXSP,2013-05-14 02:30:00,
2013-05-13 19:33:00,54.1,39.6,30.11,West,270,2.6,2.6,58,0.00,,,0.06,WUHU21636XXSP,2013-05-14 02:33:00,
2013-05-13 19:34:00,54.1,39.6,30.11,West,270,2.6,2.6,58,0.00,,,0.06,WUHU21636XXSP,2013-05-14 02:34:00,
2013-05-13 19:35:00,54.1,39.6,30.12,West,270,2.6,2.6,58,0.00,,,0.06,WUHU21636XXSP,2013-05-14 02:35:00,
2013-05-13 19:37:00,54.1,39.1,30.12,WSW,247,0.6,2.6,57,0.00,,,0.06,WUHU21636XXSP,2013-05-14 02:37:00,
2013-05-13 19:40:00,53.8,38.8,30.12,WSW,247,0.6,2.6,57,0.00,,,0.06,WUHU21636XXSP,2013-05-14 02:40:00,
2013-05-13 19:45:00,53.8,39.3,30.12,WSW,248,0.0,0.6,58,0.00,,,0.06,WUHU21636XXSP,2013-05-14 02:45:00,
2013-05-13 19:50:00,53.6,39.6,30.12,West,270,0.6,0.6,59,0.00,,,0.06,WUHU21636XXSP,2013-05-14 02:50:00,
2013-05-13 19:55:00,53.4,39.4,30.13,WSW,248,0.0,0.6,59,0.00,,,0.06,WUHU21636XXSP,2013-05-14 02:55:00,
2013-05-13 20:00:00,53.4,40.3,30.14,WSW,248,0.0,0.0,61,0.00,,,0.06,WUHU21636XXSP,2013-05-14 03:00:00,
2013-05-13 20:05:00,53.2,40.5,30.14,SW,225,0.0,0.6,62,0.00,,,0.06,WUHU21636XXSP,2013-05-14 03:05:00,
2013-05-13 20:10:00,52.9,40.3,30.13,WSW,248,0.0,0.6,62,0.00,,,0.06,WUHU21636XXSP,2013-05-14 03:10:00,
2013-05-13 20:15:00,52.5,40.3,30.14,SW,225,0.4,0.4,63,0.00,,,0.06,WUHU21636XXSP,2013-05-14 03:15:00,
2013-05-13 20:20:00,52.5,40.7,30.14,SSE,158,0.3,0.4,64,0.00,,,0.06,WUHU21636XXSP,2013-05-14 03:20:00,
2013-05-13 20:25:00,52.2,40.4,30.14,SSW,203,0.4,0.4,64,0.00,,,0.06,WUHU21636XXSP,2013-05-14 03:25:00,
2013-05-13 20:30:00,52.0,40.3,30.14,SSE,158,0.0,0.4,64,0.00,,,0.06,WUHU21636XXSP,2013-05-14 03:30:00,
2013-05-13 20:35:00,51.6,40.3,30.14,South,180,0.0,0.4,65,0.00,,,0.06,WUHU21636XXSP,2013-05-14 03:35:00,
2013-05-13 20:40:00,51.6,41.1,30.15,North,0,0.0,0.0,67,0.00,,,0.06,WUHU21636XXSP,2013-05-14 03:40:00,
2013-05-13 20:45:00,51.4,40.9,30.16,WNW,293,0.0,0.0,67,0.00,,,0.06,WUHU21636XXSP,2013-05-14 03:45:00,
2013-05-13 20:50:00,51.3,41.2,30.16,West,270,0.0,0.0,68,0.00,,,0.06,WUHU21636XXSP,2013-05-14 03:50:00,
2013-05-13 20:55:00,50.9,41.2,30.16,SW,225,1.3,1.3,69,0.00,,,0.06,WUHU21636XXSP,2013-05-14 03:55:00,
2013-05-13 21:00:00,50.9,41.2,30.16,SW,225,0.0,1.3,69,0.00,,,0.06,WUHU21636XXSP,2013-05-14 04:00:00,
2013-05-13 21:05:00,50.7,41.4,30.17,SE,135,0.0,0.0,70,0.00,,,0.06,WUHU21636XXSP,2013-05-14 04:05:00,
2013-05-13 21:10:00,50.4,41.5,30.17,SSE,158,0.0,0.0,71,0.00,,,0.06,WUHU21636XXSP,2013-05-14 04:10:00,
2013-05-13 21:15:00,50.2,41.6,30.17,SSE,158,0.0,0.0,72,0.00,,,0.06,WUHU21636XXSP,2013-05-14 04:15:00,
2013-05-13 21:20:00,50.0,41.8,30.18,SSE,158,0.0,0.0,73,0.00,,,0.06,WUHU21636XXSP,2013-05-14 04:20:00,
2013-05-13 21:25:00,49.8,41.6,30.17,SSE,158,0.0,0.0,73,0.00,,,0.06,WUHU21636XXSP,2013-05-14 04:25:00,
2013-05-13 21:30:00,49.8,42.0,30.18,SSE,158,0.0,0.0,74,0.00,,,0.06,WUHU21636XXSP,2013-05-14 04:30:00,
2013-05-13 21:35:00,49.6,41.8,30.18,South,180,0.0,0.0,74,0.00,,,0.06,WUHU21636XXSP,2013-05-14 04:35:00,
2013-05-13 21:40:00,49.6,41.8,30.18,South,180,0.0,0.0,74,0.00,,,0.06,WUHU21636XXSP,2013-05-14 04:40:00,
2013-05-13 21:45:00,49.5,42.0,30.18,SSW,203,0.5,0.5,75,0.00,,,0.06,WUHU21636XXSP,2013-05-14 04:45:00,
2013-05-13 21:50:00,49.1,42.0,30.18,SSE,158,0.0,0.5,76,0.00,,,0.06,WUHU21636XXSP,2013-05-14 04:50:00,
2013-05-13 21:55:00,49.1,42.3,30.18,SSE,158,0.0,0.0,77,0.00,,,0.06,WUHU21636XXSP,2013-05-14 04:55:00,
2013-05-13 22:00:00,49.1,42.7,30.18,SSE,158,0.0,0.0,78,0.00,,,0.06,WUHU21636XXSP,2013-05-14 05:00:00,
2013-05-13 22:05:00,48.9,42.5,30.18,South,180,0.0,0.0,78,0.00,,,0.06,WUHU21636XXSP,2013-05-14 05:05:00,
2013-05-13 22:10:00,48.9,42.5,30.18,South,180,0.3,0.3,78,0.00,,,0.06,WUHU21636XXSP,2013-05-14 05:10:00,
2013-05-13 22:13:00,48.7,42.6,30.19,South,180,0.0,0.3,79,0.00,,,0.06,WUHU21636XXSP,2013-05-14 05:13:00,
2013-05-13 22:15:00,48.7,42.6,30.19,South,180,0.0,0.3,79,0.00,,,0.06,WUHU21636XXSP,2013-05-14 05:15:00,
2013-05-13 22:16:00,48.7,42.6,30.18,South,180,0.0,0.3,79,0.00,,,0.06,WUHU21636XXSP,2013-05-14 05:16:00,
2013-05-13 22:18:00,48.7,42.6,30.18,South,180,0.0,0.3,79,0.00,,,0.06,WUHU21636XXSP,2013-05-14 05:18:00,
2013-05-13 22:19:00,48.6,42.5,30.18,South,180,0.0,0.3,79,0.00,,,0.06,WUHU21636XXSP,2013-05-14 05:19:00,
2013-05-13 22:20:00,48.6,42.5,30.19,South,180,0.0,0.0,79,0.00,,,0.06,WUHU21636XXSP,2013-05-14 05:20:00,
2013-05-13 22:21:00,48.6,42.5,30.19,SSE,157,0.0,0.0,79,0.00,,,0.06,WUHU21636XXSP,2013-05-14 05:21:00,
2013-05-13 22:24:00,48.4,42.3,30.19,SSW,202,0.0,0.0,79,0.00,,,0.06,WUHU21636XXSP,2013-05-14 05:24:00,
2013-05-13 22:25:00,48.4,42.3,30.19,SSW,202,0.0,0.0,79,0.00,,,0.06,WUHU21636XXSP,2013-05-14 05:25:00,
2013-05-13 22:27:00,48.4,42.3,30.19,SSW,202,0.0,0.0,79,0.00,,,0.06,WUHU21636XXSP,2013-05-14 05:27:00,
2013-05-13 22:28:00,48.4,42.3,30.19,SE,135,0.0,0.0,79,0.00,,,0.06,WUHU21636XXSP,2013-05-14 05:28:00,
2013-05-13 22:29:00,48.4,42.3,30.19,SE,135,0.0,0.0,79,0.00,,,0.06,WUHU21636XXSP,2013-05-14 05:29:00,
2013-05-13 22:30:00,48.0,41.9,30.19,SE,135,0.0,0.0,79,0.00,,,0.06,WUHU21636XXSP,2013-05-14 05:30:00,
2013-05-13 22:32:00,48.0,41.9,30.19,SSE,157,0.0,0.0,79,0.00,,,0.06,WUHU21636XXSP,2013-05-14 05:32:00,
2013-05-13 22:33:00,48.0,41.9,30.19,SSE,157,0.0,0.0,79,0.00,,,0.06,WUHU21636XXSP,2013-05-14 05:33:00,
2013-05-13 22:35:00,48.0,41.9,30.19,SW,225,0.0,0.0,79,0.00,,,0.06,WUHU21636XXSP,2013-05-14 05:35:00,
2013-05-13 22:46:00,47.8,41.7,30.19,SW,225,0.0,0.0,79,0.00,,,0.06,WUHU21636XXSP,2013-05-14 05:46:00,
2013-05-13 22:51:00,47.5,41.4,30.19,SW,225,0.0,0.0,79,0.00,,,0.06,WUHU21636XXSP,2013-05-14 05:51:00,
2013-05-13 22:52:00,47.5,41.4,30.19,SW,225,0.0,0.0,79,0.00,,,0.06,WUHU21636XXSP,2013-05-14 05:52:00,
2013-05-13 22:56:00,47.3,41.3,30.19,SW,225,0.0,0.0,79,0.00,,,0.06,WUHU21636XXSP,2013-05-14 05:56:00,
2013-05-13 22:57:00,47.3,41.3,30.19,SW,225,0.0,0.0,79,0.00,,,0.06,WUHU21636XXSP,2013-05-14 05:57:00,
2013-05-13 23:01:00,47.1,41.4,30.19,SW,225,0.0,0.0,80,0.00,,,0.06,WUHU21636XXSP,2013-05-14 06:01:00,
2013-05-13 23:02:00,46.9,41.2,30.19,SW,225,0.0,0.0,80,0.00,,,0.06,WUHU21636XXSP,2013-05-14 06:02:00,
2013-05-13 23:07:00,46.9,41.2,30.19,SW,225,0.0,0.0,80,0.00,,,0.06,WUHU21636XXSP,2013-05-14 06:07:00,
2013-05-13 23:08:00,46.9,41.2,30.19,SW,225,0.0,0.0,80,0.00,,,0.06,WUHU21636XXSP,2013-05-14 06:08:00,
2013-05-13 23:12:00,46.9,41.2,30.19,SW,225,0.0,0.0,80,0.00,,,0.06,WUHU21636XXSP,2013-05-14 06:12:00,
2013-05-13 23:13:00,46.8,41.1,30.19,SW,225,0.0,0.0,80,0.00,,,0.06,WUHU21636XXSP,2013-05-14 06:13:00,
2013-05-13 23:17:00,46.4,41.0,30.18,SW,225,0.0,0.0,81,0.00,,,0.06,WUHU21636XXSP,2013-05-14 06:17:00,
2013-05-13 23:18:00,46.4,41.0,30.19,SW,225,0.0,0.0,81,0.00,,,0.06,WUHU21636XXSP,2013-05-14 06:18:00,
2013-05-13 23:22:00,46.2,40.8,30.19,SW,225,0.0,0.0,81,0.00,,,0.06,WUHU21636XXSP,2013-05-14 06:22:00,
2013-05-13 23:23:00,46.2,40.8,30.19,SW,225,0.0,0.0,81,0.00,,,0.06,WUHU21636XXSP,2013-05-14 06:23:00,
2013-05-13 23:25:00,46.0,40.6,30.19,SW,225,0.0,0.0,81,0.00,,,0.06,WUHU21636XXSP,2013-05-14 06:25:00,
2013-05-13 23:27:00,46.0,40.6,30.19,SW,225,0.0,0.0,81,0.00,,,0.06,WUHU21636XXSP,2013-05-14 06:27:00,
2013-05-13 23:37:00,46.0,40.6,30.19,SW,225,0.0,0.0,81,0.00,,,0.06,WUHU21636XXSP,2013-05-14 06:37:00,
2013-05-13 23:38:00,45.5,40.5,30.19,SW,225,0.0,0.0,82,0.00,,,0.06,WUHU21636XXSP,2013-05-14 06:38:00,
2013-05-13 23:42:00,45.3,40.6,30.19,SW,225,0.0,0.0,83,0.00,,,0.06,WUHU21636XXSP,2013-05-14 06:42:00,
2013-05-13 23:43:00,45.3,40.6,30.19,SW,225,0.0,0.0,83,0.00,,,0.06,WUHU21636XXSP,2013-05-14 06:43:00,
2013-05-13 23:48:00,45.1,40.4,30.20,SW,225,0.0,0.0,83,0.00,,,0.06,WUHU21636XXSP,2013-05-14 06:48:00,
2013-05-13 23:49:00,45.1,40.4,30.19,SW,225,0.0,0.0,83,0.00,,,0.06,WUHU21636XXSP,2013-05-14 06:49:00,
2013-05-13 23:53:00,45.0,40.3,30.19,SW,225,0.0,0.0,83,0.00,,,0.06,WUHU21636XXSP,2013-05-14 06:53:00,
2013-05-13 23:54:00,45.0,40.3,30.19,SSW,202,0.0,0.0,83,0.00,,,0.06,WUHU21636XXSP,2013-05-14 06:54:00,
2013-05-13 23:58:00,45.0,40.6,30.19,SSW,202,0.0,0.0,85,0.00,,,0.06,WUHU21636XXSP,2013-05-14 06:58:00,
2013-05-13 23:59:00,45.0,40.6,30.20,SSW,202,0.0,0.0,85,0.00,,,0.06,WUHU21636XXSP,2013-05-14 06:59:00,